<?xml version="1.0" encoding="UTF-8" standalone="no" ?>
<gpx xmlns="http://www.topografix.com/GPX/1/1" xmlns:xsi="http://www.w3.org/2001/XMLSchema-instance" xsi:schemaLocation="http://www.topografix.com/GPX/1/1 http://www.topografix.com/GPX/1/1/gpx.xsd" version="1.1" creator="VisuGPX - https://www.visugpx.com">
  <metadata>
    <name>hotonnes-retord</name>
    <desc><![CDATA[Balade VTT sur le plateau du Retord.
Chemins vallonnés]]></desc>
  </metadata>
  <trk>
    <name><![CDATA[hotonnes-retord]]></name>
    <trkseg>
      <trkpt lat="46.00659" lon="5.68375">
        <ele>759.1</ele>
        <time>2019-07-10T23:09:19Z</time>
      </trkpt>
      <trkpt lat="46.00662" lon="5.68377">
        <ele>759.2</ele>
        <time>2019-07-10T23:09:19Z</time>
      </trkpt>
      <trkpt lat="46.00653" lon="5.68403">
        <ele>758</ele>
        <time>2019-07-10T23:09:19Z</time>
      </trkpt>
      <trkpt lat="46.00647" lon="5.68424">
        <ele>757.1</ele>
        <time>2019-07-10T23:09:19Z</time>
      </trkpt>
      <trkpt lat="46.00636" lon="5.68447">
        <ele>756.8</ele>
        <time>2019-07-10T23:09:19Z</time>
      </trkpt>
      <trkpt lat="46.00602" lon="5.6847">
        <ele>756.1</ele>
        <time>2019-07-10T23:09:19Z</time>
      </trkpt>
      <trkpt lat="46.00539" lon="5.685">
        <ele>754.4</ele>
        <time>2019-07-10T23:09:19Z</time>
      </trkpt>
      <trkpt lat="46.0048" lon="5.68545">
        <ele>752.5</ele>
        <time>2019-07-10T23:09:19Z</time>
      </trkpt>
      <trkpt lat="46.00429" lon="5.68594">
        <ele>751.9</ele>
        <time>2019-07-10T23:09:19Z</time>
      </trkpt>
      <trkpt lat="46.00338" lon="5.68703">
        <ele>748.1</ele>
        <time>2019-07-10T23:09:19Z</time>
      </trkpt>
      <trkpt lat="46.0033" lon="5.68713">
        <ele>748</ele>
        <time>2019-07-10T23:09:19Z</time>
      </trkpt>
      <trkpt lat="46.00327" lon="5.68729">
        <ele>748.7</ele>
        <time>2019-07-10T23:09:19Z</time>
      </trkpt>
      <trkpt lat="46.00295" lon="5.68832">
        <ele>752.4</ele>
        <time>2019-07-10T23:09:19Z</time>
      </trkpt>
      <trkpt lat="46.00291" lon="5.68841">
        <ele>752.6</ele>
        <time>2019-07-10T23:09:19Z</time>
      </trkpt>
      <trkpt lat="46.00288" lon="5.68847">
        <ele>752.8</ele>
        <time>2019-07-10T23:09:19Z</time>
      </trkpt>
      <trkpt lat="46.00281" lon="5.68861">
        <ele>753.3</ele>
        <time>2019-07-10T23:09:19Z</time>
      </trkpt>
      <trkpt lat="46.00227" lon="5.68908">
        <ele>755.4</ele>
        <time>2019-07-10T23:09:19Z</time>
      </trkpt>
      <trkpt lat="46.0016" lon="5.68994">
        <ele>757.3</ele>
        <time>2019-07-10T23:09:19Z</time>
      </trkpt>
      <trkpt lat="46.0014" lon="5.69027">
        <ele>758.1</ele>
        <time>2019-07-10T23:09:19Z</time>
      </trkpt>
      <trkpt lat="46.00133" lon="5.69049">
        <ele>758.2</ele>
        <time>2019-07-10T23:09:19Z</time>
      </trkpt>
      <trkpt lat="46.00124" lon="5.69087">
        <ele>759.5</ele>
        <time>2019-07-10T23:09:19Z</time>
      </trkpt>
      <trkpt lat="46.00114" lon="5.69111">
        <ele>759.4</ele>
        <time>2019-07-10T23:09:19Z</time>
      </trkpt>
      <trkpt lat="46.00098" lon="5.69141">
        <ele>759.2</ele>
        <time>2019-07-10T23:09:19Z</time>
      </trkpt>
      <trkpt lat="46.00076" lon="5.69187">
        <ele>758.5</ele>
        <time>2019-07-10T23:09:19Z</time>
      </trkpt>
      <trkpt lat="46.00065" lon="5.69217">
        <ele>757.6</ele>
        <time>2019-07-10T23:09:19Z</time>
      </trkpt>
      <trkpt lat="46.00105" lon="5.69197">
        <ele>761.5</ele>
        <time>2019-07-10T23:09:19Z</time>
      </trkpt>
      <trkpt lat="46.0014" lon="5.69173">
        <ele>765.9</ele>
        <time>2019-07-10T23:09:19Z</time>
      </trkpt>
      <trkpt lat="46.0016" lon="5.69167">
        <ele>767.5</ele>
        <time>2019-07-10T23:09:19Z</time>
      </trkpt>
      <trkpt lat="46.00179" lon="5.6917">
        <ele>769.2</ele>
        <time>2019-07-10T23:09:19Z</time>
      </trkpt>
      <trkpt lat="46.00234" lon="5.6919">
        <ele>774.1</ele>
        <time>2019-07-10T23:09:19Z</time>
      </trkpt>
      <trkpt lat="46.0026" lon="5.69188">
        <ele>776.9</ele>
        <time>2019-07-10T23:09:19Z</time>
      </trkpt>
      <trkpt lat="46.0028" lon="5.69185">
        <ele>779.3</ele>
        <time>2019-07-10T23:09:19Z</time>
      </trkpt>
      <trkpt lat="46.00306" lon="5.69172">
        <ele>781</ele>
        <time>2019-07-10T23:09:19Z</time>
      </trkpt>
      <trkpt lat="46.00336" lon="5.69151">
        <ele>783.9</ele>
        <time>2019-07-10T23:09:19Z</time>
      </trkpt>
      <trkpt lat="46.00381" lon="5.69112">
        <ele>788</ele>
        <time>2019-07-10T23:09:19Z</time>
      </trkpt>
      <trkpt lat="46.00426" lon="5.69094">
        <ele>791.7</ele>
        <time>2019-07-10T23:09:19Z</time>
      </trkpt>
      <trkpt lat="46.00447" lon="5.69081">
        <ele>793.1</ele>
        <time>2019-07-10T23:09:19Z</time>
      </trkpt>
      <trkpt lat="46.00447" lon="5.6908">
        <ele>792.9</ele>
        <time>2019-07-10T23:09:19Z</time>
      </trkpt>
      <trkpt lat="46.00513" lon="5.69038">
        <ele>798.5</ele>
        <time>2019-07-10T23:09:19Z</time>
      </trkpt>
      <trkpt lat="46.00531" lon="5.69024">
        <ele>799.4</ele>
        <time>2019-07-10T23:09:19Z</time>
      </trkpt>
      <trkpt lat="46.00543" lon="5.69009">
        <ele>800.8</ele>
        <time>2019-07-10T23:09:19Z</time>
      </trkpt>
      <trkpt lat="46.00569" lon="5.68949">
        <ele>803.7</ele>
        <time>2019-07-10T23:09:19Z</time>
      </trkpt>
      <trkpt lat="46.00582" lon="5.68933">
        <ele>805</ele>
        <time>2019-07-10T23:09:19Z</time>
      </trkpt>
      <trkpt lat="46.0062" lon="5.68902">
        <ele>808.8</ele>
        <time>2019-07-10T23:09:19Z</time>
      </trkpt>
      <trkpt lat="46.00663" lon="5.68875">
        <ele>812.4</ele>
        <time>2019-07-10T23:09:19Z</time>
      </trkpt>
      <trkpt lat="46.00705" lon="5.68843">
        <ele>816.7</ele>
        <time>2019-07-10T23:09:19Z</time>
      </trkpt>
      <trkpt lat="46.00754" lon="5.688">
        <ele>821.8</ele>
        <time>2019-07-10T23:09:19Z</time>
      </trkpt>
      <trkpt lat="46.00761" lon="5.68796">
        <ele>822.2</ele>
        <time>2019-07-10T23:09:19Z</time>
      </trkpt>
      <trkpt lat="46.00769" lon="5.68801">
        <ele>824.1</ele>
        <time>2019-07-10T23:09:19Z</time>
      </trkpt>
      <trkpt lat="46.00772" lon="5.6881">
        <ele>825.7</ele>
        <time>2019-07-10T23:09:19Z</time>
      </trkpt>
      <trkpt lat="46.00771" lon="5.68817">
        <ele>826.5</ele>
        <time>2019-07-10T23:09:19Z</time>
      </trkpt>
      <trkpt lat="46.00766" lon="5.68828">
        <ele>826.9</ele>
        <time>2019-07-10T23:09:19Z</time>
      </trkpt>
      <trkpt lat="46.00751" lon="5.68849">
        <ele>826.5</ele>
        <time>2019-07-10T23:09:19Z</time>
      </trkpt>
      <trkpt lat="46.00692" lon="5.68947">
        <ele>832</ele>
        <time>2019-07-10T23:09:19Z</time>
      </trkpt>
      <trkpt lat="46.00691" lon="5.68954">
        <ele>833.3</ele>
        <time>2019-07-10T23:09:19Z</time>
      </trkpt>
      <trkpt lat="46.00694" lon="5.68961">
        <ele>835.5</ele>
        <time>2019-07-10T23:09:19Z</time>
      </trkpt>
      <trkpt lat="46.00701" lon="5.6896">
        <ele>837</ele>
        <time>2019-07-10T23:09:19Z</time>
      </trkpt>
      <trkpt lat="46.00732" lon="5.68929">
        <ele>837.9</ele>
        <time>2019-07-10T23:09:19Z</time>
      </trkpt>
      <trkpt lat="46.00773" lon="5.689">
        <ele>842.8</ele>
        <time>2019-07-10T23:09:19Z</time>
      </trkpt>
      <trkpt lat="46.00815" lon="5.68863">
        <ele>845.2</ele>
        <time>2019-07-10T23:09:19Z</time>
      </trkpt>
      <trkpt lat="46.00844" lon="5.6883">
        <ele>846.8</ele>
        <time>2019-07-10T23:09:19Z</time>
      </trkpt>
      <trkpt lat="46.0086" lon="5.68818">
        <ele>848.4</ele>
        <time>2019-07-10T23:09:19Z</time>
      </trkpt>
      <trkpt lat="46.00916" lon="5.6879">
        <ele>853.9</ele>
        <time>2019-07-10T23:09:19Z</time>
      </trkpt>
      <trkpt lat="46.00951" lon="5.6877">
        <ele>856.8</ele>
        <time>2019-07-10T23:09:19Z</time>
      </trkpt>
      <trkpt lat="46.00967" lon="5.6876">
        <ele>858.6</ele>
        <time>2019-07-10T23:09:19Z</time>
      </trkpt>
      <trkpt lat="46.0097" lon="5.6875">
        <ele>857.4</ele>
        <time>2019-07-10T23:09:19Z</time>
      </trkpt>
      <trkpt lat="46.01003" lon="5.68699">
        <ele>854.5</ele>
        <time>2019-07-10T23:09:19Z</time>
      </trkpt>
      <trkpt lat="46.0102" lon="5.68679">
        <ele>855.3</ele>
        <time>2019-07-10T23:09:19Z</time>
      </trkpt>
      <trkpt lat="46.01041" lon="5.68668">
        <ele>857.6</ele>
        <time>2019-07-10T23:09:19Z</time>
      </trkpt>
      <trkpt lat="46.01127" lon="5.68639">
        <ele>868.9</ele>
        <time>2019-07-10T23:09:19Z</time>
      </trkpt>
      <trkpt lat="46.01248" lon="5.68573">
        <ele>879.8</ele>
        <time>2019-07-10T23:09:19Z</time>
      </trkpt>
      <trkpt lat="46.0128" lon="5.68566">
        <ele>883.9</ele>
        <time>2019-07-10T23:09:19Z</time>
      </trkpt>
      <trkpt lat="46.01307" lon="5.68546">
        <ele>885.9</ele>
        <time>2019-07-10T23:09:19Z</time>
      </trkpt>
      <trkpt lat="46.01342" lon="5.6853">
        <ele>888.7</ele>
        <time>2019-07-10T23:09:19Z</time>
      </trkpt>
      <trkpt lat="46.0138" lon="5.68526">
        <ele>891.8</ele>
        <time>2019-07-10T23:09:19Z</time>
      </trkpt>
      <trkpt lat="46.01498" lon="5.68531">
        <ele>902.7</ele>
        <time>2019-07-10T23:09:19Z</time>
      </trkpt>
      <trkpt lat="46.01523" lon="5.68525">
        <ele>902.5</ele>
        <time>2019-07-10T23:09:19Z</time>
      </trkpt>
      <trkpt lat="46.01577" lon="5.6852">
        <ele>905.2</ele>
        <time>2019-07-10T23:09:19Z</time>
      </trkpt>
      <trkpt lat="46.01618" lon="5.68533">
        <ele>909.7</ele>
        <time>2019-07-10T23:09:19Z</time>
      </trkpt>
      <trkpt lat="46.01628" lon="5.6855">
        <ele>912.3</ele>
        <time>2019-07-10T23:09:19Z</time>
      </trkpt>
      <trkpt lat="46.01642" lon="5.68564">
        <ele>914.6</ele>
        <time>2019-07-10T23:09:19Z</time>
      </trkpt>
      <trkpt lat="46.01654" lon="5.68568">
        <ele>916.6</ele>
        <time>2019-07-10T23:09:19Z</time>
      </trkpt>
      <trkpt lat="46.01664" lon="5.68563">
        <ele>916.1</ele>
        <time>2019-07-10T23:09:19Z</time>
      </trkpt>
      <trkpt lat="46.01679" lon="5.68533">
        <ele>916.3</ele>
        <time>2019-07-10T23:09:19Z</time>
      </trkpt>
      <trkpt lat="46.01691" lon="5.68527">
        <ele>918.7</ele>
        <time>2019-07-10T23:09:19Z</time>
      </trkpt>
      <trkpt lat="46.01723" lon="5.68519">
        <ele>920.6</ele>
        <time>2019-07-10T23:09:19Z</time>
      </trkpt>
      <trkpt lat="46.0179" lon="5.68525">
        <ele>926</ele>
        <time>2019-07-10T23:09:19Z</time>
      </trkpt>
      <trkpt lat="46.01825" lon="5.68515">
        <ele>927.8</ele>
        <time>2019-07-10T23:09:19Z</time>
      </trkpt>
      <trkpt lat="46.0185" lon="5.6851">
        <ele>929.9</ele>
        <time>2019-07-10T23:09:19Z</time>
      </trkpt>
      <trkpt lat="46.01895" lon="5.6851">
        <ele>933.5</ele>
        <time>2019-07-10T23:09:19Z</time>
      </trkpt>
      <trkpt lat="46.01918" lon="5.68504">
        <ele>934.2</ele>
        <time>2019-07-10T23:09:19Z</time>
      </trkpt>
      <trkpt lat="46.01936" lon="5.68491">
        <ele>935.5</ele>
        <time>2019-07-10T23:09:19Z</time>
      </trkpt>
      <trkpt lat="46.01977" lon="5.6845">
        <ele>938.6</ele>
        <time>2019-07-10T23:09:19Z</time>
      </trkpt>
      <trkpt lat="46.01998" lon="5.68438">
        <ele>938.9</ele>
        <time>2019-07-10T23:09:19Z</time>
      </trkpt>
      <trkpt lat="46.02033" lon="5.6843">
        <ele>940.8</ele>
        <time>2019-07-10T23:09:19Z</time>
      </trkpt>
      <trkpt lat="46.02169" lon="5.68434">
        <ele>947.9</ele>
        <time>2019-07-10T23:09:19Z</time>
      </trkpt>
      <trkpt lat="46.02247" lon="5.68432">
        <ele>954</ele>
        <time>2019-07-10T23:09:19Z</time>
      </trkpt>
      <trkpt lat="46.02321" lon="5.68424">
        <ele>957.6</ele>
        <time>2019-07-10T23:09:19Z</time>
      </trkpt>
      <trkpt lat="46.02334" lon="5.68422">
        <ele>957.8</ele>
        <time>2019-07-10T23:09:19Z</time>
      </trkpt>
      <trkpt lat="46.02434" lon="5.68413">
        <ele>959.2</ele>
        <time>2019-07-10T23:09:19Z</time>
      </trkpt>
      <trkpt lat="46.02488" lon="5.68416">
        <ele>961.4</ele>
        <time>2019-07-10T23:09:19Z</time>
      </trkpt>
      <trkpt lat="46.02544" lon="5.6841">
        <ele>961.6</ele>
        <time>2019-07-10T23:09:19Z</time>
      </trkpt>
      <trkpt lat="46.02583" lon="5.68413">
        <ele>962</ele>
        <time>2019-07-10T23:09:19Z</time>
      </trkpt>
      <trkpt lat="46.02662" lon="5.68413">
        <ele>963.1</ele>
        <time>2019-07-10T23:09:19Z</time>
      </trkpt>
      <trkpt lat="46.02765" lon="5.68428">
        <ele>965.4</ele>
        <time>2019-07-10T23:09:19Z</time>
      </trkpt>
      <trkpt lat="46.02791" lon="5.68434">
        <ele>966.7</ele>
        <time>2019-07-10T23:09:19Z</time>
      </trkpt>
      <trkpt lat="46.02818" lon="5.68444">
        <ele>968</ele>
        <time>2019-07-10T23:09:19Z</time>
      </trkpt>
      <trkpt lat="46.02848" lon="5.68463">
        <ele>970.1</ele>
        <time>2019-07-10T23:09:19Z</time>
      </trkpt>
      <trkpt lat="46.02875" lon="5.68484">
        <ele>972.1</ele>
        <time>2019-07-10T23:09:19Z</time>
      </trkpt>
      <trkpt lat="46.02892" lon="5.68508">
        <ele>973.9</ele>
        <time>2019-07-10T23:09:19Z</time>
      </trkpt>
      <trkpt lat="46.02916" lon="5.68537">
        <ele>974.8</ele>
        <time>2019-07-10T23:09:19Z</time>
      </trkpt>
      <trkpt lat="46.02928" lon="5.68543">
        <ele>975.6</ele>
        <time>2019-07-10T23:09:19Z</time>
      </trkpt>
      <trkpt lat="46.02943" lon="5.68544">
        <ele>975.5</ele>
        <time>2019-07-10T23:09:19Z</time>
      </trkpt>
      <trkpt lat="46.03016" lon="5.68533">
        <ele>977.5</ele>
        <time>2019-07-10T23:09:19Z</time>
      </trkpt>
      <trkpt lat="46.0305" lon="5.68516">
        <ele>978</ele>
        <time>2019-07-10T23:09:19Z</time>
      </trkpt>
      <trkpt lat="46.03071" lon="5.68512">
        <ele>978.9</ele>
        <time>2019-07-10T23:09:19Z</time>
      </trkpt>
      <trkpt lat="46.031" lon="5.68512">
        <ele>979.4</ele>
        <time>2019-07-10T23:09:19Z</time>
      </trkpt>
      <trkpt lat="46.03121" lon="5.68516">
        <ele>979.3</ele>
        <time>2019-07-10T23:09:19Z</time>
      </trkpt>
      <trkpt lat="46.03156" lon="5.68543">
        <ele>979.3</ele>
        <time>2019-07-10T23:09:19Z</time>
      </trkpt>
      <trkpt lat="46.0322" lon="5.68611">
        <ele>980.1</ele>
        <time>2019-07-10T23:09:19Z</time>
      </trkpt>
      <trkpt lat="46.03243" lon="5.68625">
        <ele>980.9</ele>
        <time>2019-07-10T23:09:19Z</time>
      </trkpt>
      <trkpt lat="46.0329" lon="5.68644">
        <ele>983.2</ele>
        <time>2019-07-10T23:09:19Z</time>
      </trkpt>
      <trkpt lat="46.03382" lon="5.68671">
        <ele>985.2</ele>
        <time>2019-07-10T23:09:19Z</time>
      </trkpt>
      <trkpt lat="46.03436" lon="5.68692">
        <ele>986.4</ele>
        <time>2019-07-10T23:09:19Z</time>
      </trkpt>
      <trkpt lat="46.03467" lon="5.68713">
        <ele>986.5</ele>
        <time>2019-07-10T23:09:19Z</time>
      </trkpt>
      <trkpt lat="46.03551" lon="5.68781">
        <ele>987.2</ele>
        <time>2019-07-10T23:09:19Z</time>
      </trkpt>
      <trkpt lat="46.03577" lon="5.68798">
        <ele>986.7</ele>
        <time>2019-07-10T23:09:19Z</time>
      </trkpt>
      <trkpt lat="46.03583" lon="5.68801">
        <ele>986.4</ele>
        <time>2019-07-10T23:09:19Z</time>
      </trkpt>
      <trkpt lat="46.03583" lon="5.68801">
        <ele>986.4</ele>
        <time>2019-07-10T23:09:19Z</time>
      </trkpt>
      <trkpt lat="46.03617" lon="5.68819">
        <ele>987.8</ele>
        <time>2019-07-10T23:09:19Z</time>
      </trkpt>
      <trkpt lat="46.03666" lon="5.68838">
        <ele>989.2</ele>
        <time>2019-07-10T23:09:19Z</time>
      </trkpt>
      <trkpt lat="46.03719" lon="5.68854">
        <ele>989.2</ele>
        <time>2019-07-10T23:09:19Z</time>
      </trkpt>
      <trkpt lat="46.03746" lon="5.68858">
        <ele>988.4</ele>
        <time>2019-07-10T23:09:19Z</time>
      </trkpt>
      <trkpt lat="46.03802" lon="5.68874">
        <ele>989</ele>
        <time>2019-07-10T23:09:19Z</time>
      </trkpt>
      <trkpt lat="46.03844" lon="5.68874">
        <ele>989.3</ele>
        <time>2019-07-10T23:09:19Z</time>
      </trkpt>
      <trkpt lat="46.03896" lon="5.68866">
        <ele>989.8</ele>
        <time>2019-07-10T23:09:19Z</time>
      </trkpt>
      <trkpt lat="46.03922" lon="5.68858">
        <ele>989</ele>
        <time>2019-07-10T23:09:19Z</time>
      </trkpt>
      <trkpt lat="46.03936" lon="5.68852">
        <ele>989.4</ele>
        <time>2019-07-10T23:09:19Z</time>
      </trkpt>
      <trkpt lat="46.03949" lon="5.68842">
        <ele>989.4</ele>
        <time>2019-07-10T23:09:19Z</time>
      </trkpt>
      <trkpt lat="46.0397" lon="5.68804">
        <ele>988.5</ele>
        <time>2019-07-10T23:09:19Z</time>
      </trkpt>
      <trkpt lat="46.03993" lon="5.68774">
        <ele>988.6</ele>
        <time>2019-07-10T23:09:19Z</time>
      </trkpt>
      <trkpt lat="46.04017" lon="5.68751">
        <ele>988.1</ele>
        <time>2019-07-10T23:09:19Z</time>
      </trkpt>
      <trkpt lat="46.04024" lon="5.68749">
        <ele>987.9</ele>
        <time>2019-07-10T23:09:19Z</time>
      </trkpt>
      <trkpt lat="46.0403" lon="5.68751">
        <ele>987.7</ele>
        <time>2019-07-10T23:09:19Z</time>
      </trkpt>
      <trkpt lat="46.04038" lon="5.68759">
        <ele>987.4</ele>
        <time>2019-07-10T23:09:19Z</time>
      </trkpt>
      <trkpt lat="46.04068" lon="5.68805">
        <ele>987.2</ele>
        <time>2019-07-10T23:09:19Z</time>
      </trkpt>
      <trkpt lat="46.04087" lon="5.68827">
        <ele>988.1</ele>
        <time>2019-07-10T23:09:19Z</time>
      </trkpt>
      <trkpt lat="46.04106" lon="5.68839">
        <ele>988.1</ele>
        <time>2019-07-10T23:09:19Z</time>
      </trkpt>
      <trkpt lat="46.04103" lon="5.68861">
        <ele>988.2</ele>
        <time>2019-07-10T23:09:19Z</time>
      </trkpt>
      <trkpt lat="46.04092" lon="5.68898">
        <ele>989.2</ele>
        <time>2019-07-10T23:09:19Z</time>
      </trkpt>
      <trkpt lat="46.0407" lon="5.68957">
        <ele>990</ele>
        <time>2019-07-10T23:09:19Z</time>
      </trkpt>
      <trkpt lat="46.04051" lon="5.68992">
        <ele>990</ele>
        <time>2019-07-10T23:09:19Z</time>
      </trkpt>
      <trkpt lat="46.04028" lon="5.69016">
        <ele>991.3</ele>
        <time>2019-07-10T23:09:19Z</time>
      </trkpt>
      <trkpt lat="46.03973" lon="5.69064">
        <ele>993.3</ele>
        <time>2019-07-10T23:09:19Z</time>
      </trkpt>
      <trkpt lat="46.03957" lon="5.69088">
        <ele>995</ele>
        <time>2019-07-10T23:09:19Z</time>
      </trkpt>
      <trkpt lat="46.03944" lon="5.69115">
        <ele>995.3</ele>
        <time>2019-07-10T23:09:19Z</time>
      </trkpt>
      <trkpt lat="46.03936" lon="5.69139">
        <ele>996.1</ele>
        <time>2019-07-10T23:09:19Z</time>
      </trkpt>
      <trkpt lat="46.03934" lon="5.69153">
        <ele>997</ele>
        <time>2019-07-10T23:09:19Z</time>
      </trkpt>
      <trkpt lat="46.03933" lon="5.69189">
        <ele>998.7</ele>
        <time>2019-07-10T23:09:19Z</time>
      </trkpt>
      <trkpt lat="46.03935" lon="5.69241">
        <ele>1001.3</ele>
        <time>2019-07-10T23:09:19Z</time>
      </trkpt>
      <trkpt lat="46.03934" lon="5.69275">
        <ele>1005.4</ele>
        <time>2019-07-10T23:09:19Z</time>
      </trkpt>
      <trkpt lat="46.0391" lon="5.69475">
        <ele>1006.4</ele>
        <time>2019-07-10T23:09:19Z</time>
      </trkpt>
      <trkpt lat="46.03901" lon="5.69507">
        <ele>1007.9</ele>
        <time>2019-07-10T23:09:19Z</time>
      </trkpt>
      <trkpt lat="46.03898" lon="5.69517">
        <ele>1008</ele>
        <time>2019-07-10T23:09:19Z</time>
      </trkpt>
      <trkpt lat="46.0389" lon="5.69537">
        <ele>1006.6</ele>
        <time>2019-07-10T23:09:19Z</time>
      </trkpt>
      <trkpt lat="46.03883" lon="5.69552">
        <ele>1007.4</ele>
        <time>2019-07-10T23:09:19Z</time>
      </trkpt>
      <trkpt lat="46.03875" lon="5.69563">
        <ele>1009.7</ele>
        <time>2019-07-10T23:09:19Z</time>
      </trkpt>
      <trkpt lat="46.03832" lon="5.69618">
        <ele>1010.6</ele>
        <time>2019-07-10T23:09:19Z</time>
      </trkpt>
      <trkpt lat="46.03818" lon="5.69643">
        <ele>1012.9</ele>
        <time>2019-07-10T23:09:19Z</time>
      </trkpt>
      <trkpt lat="46.0381" lon="5.69659">
        <ele>1013.9</ele>
        <time>2019-07-10T23:09:19Z</time>
      </trkpt>
      <trkpt lat="46.03804" lon="5.69684">
        <ele>1014.9</ele>
        <time>2019-07-10T23:09:19Z</time>
      </trkpt>
      <trkpt lat="46.03792" lon="5.69737">
        <ele>1016.7</ele>
        <time>2019-07-10T23:09:19Z</time>
      </trkpt>
      <trkpt lat="46.03773" lon="5.69806">
        <ele>1021.3</ele>
        <time>2019-07-10T23:09:19Z</time>
      </trkpt>
      <trkpt lat="46.03771" lon="5.69821">
        <ele>1022.6</ele>
        <time>2019-07-10T23:09:19Z</time>
      </trkpt>
      <trkpt lat="46.03774" lon="5.6985">
        <ele>1024.9</ele>
        <time>2019-07-10T23:09:19Z</time>
      </trkpt>
      <trkpt lat="46.03778" lon="5.69861">
        <ele>1025.1</ele>
        <time>2019-07-10T23:09:19Z</time>
      </trkpt>
      <trkpt lat="46.03785" lon="5.69877">
        <ele>1026.2</ele>
        <time>2019-07-10T23:09:19Z</time>
      </trkpt>
      <trkpt lat="46.03805" lon="5.69915">
        <ele>1027.1</ele>
        <time>2019-07-10T23:09:19Z</time>
      </trkpt>
      <trkpt lat="46.03863" lon="5.70038">
        <ele>1031.8</ele>
        <time>2019-07-10T23:09:19Z</time>
      </trkpt>
      <trkpt lat="46.03871" lon="5.7006">
        <ele>1032.4</ele>
        <time>2019-07-10T23:09:19Z</time>
      </trkpt>
      <trkpt lat="46.03893" lon="5.70147">
        <ele>1033.8</ele>
        <time>2019-07-10T23:09:19Z</time>
      </trkpt>
      <trkpt lat="46.03905" lon="5.7019">
        <ele>1034</ele>
        <time>2019-07-10T23:09:19Z</time>
      </trkpt>
      <trkpt lat="46.0393" lon="5.70263">
        <ele>1035.9</ele>
        <time>2019-07-10T23:09:19Z</time>
      </trkpt>
      <trkpt lat="46.03959" lon="5.70323">
        <ele>1038.1</ele>
        <time>2019-07-10T23:09:19Z</time>
      </trkpt>
      <trkpt lat="46.03958" lon="5.70323">
        <ele>1038.1</ele>
        <time>2019-07-10T23:09:19Z</time>
      </trkpt>
      <trkpt lat="46.03958" lon="5.70323">
        <ele>1038.1</ele>
        <time>2019-07-10T23:09:19Z</time>
      </trkpt>
      <trkpt lat="46.03959" lon="5.70323">
        <ele>1038.1</ele>
        <time>2019-07-10T23:09:19Z</time>
      </trkpt>
      <trkpt lat="46.03965" lon="5.70339">
        <ele>1038.5</ele>
        <time>2019-07-10T23:09:19Z</time>
      </trkpt>
      <trkpt lat="46.04008" lon="5.70338">
        <ele>1038.1</ele>
        <time>2019-07-10T23:09:19Z</time>
      </trkpt>
      <trkpt lat="46.04022" lon="5.70336">
        <ele>1038</ele>
        <time>2019-07-10T23:09:19Z</time>
      </trkpt>
      <trkpt lat="46.04041" lon="5.70342">
        <ele>1037.7</ele>
        <time>2019-07-10T23:09:19Z</time>
      </trkpt>
      <trkpt lat="46.04071" lon="5.70359">
        <ele>1038</ele>
        <time>2019-07-10T23:09:19Z</time>
      </trkpt>
      <trkpt lat="46.04082" lon="5.70371">
        <ele>1038.4</ele>
        <time>2019-07-10T23:09:19Z</time>
      </trkpt>
      <trkpt lat="46.04097" lon="5.70377">
        <ele>1039.1</ele>
        <time>2019-07-10T23:09:19Z</time>
      </trkpt>
      <trkpt lat="46.04111" lon="5.70377">
        <ele>1039.6</ele>
        <time>2019-07-10T23:09:19Z</time>
      </trkpt>
      <trkpt lat="46.04134" lon="5.70355">
        <ele>1039.4</ele>
        <time>2019-07-10T23:09:19Z</time>
      </trkpt>
      <trkpt lat="46.04187" lon="5.70305">
        <ele>1040.7</ele>
        <time>2019-07-10T23:09:19Z</time>
      </trkpt>
      <trkpt lat="46.04214" lon="5.70288">
        <ele>1040.4</ele>
        <time>2019-07-10T23:09:19Z</time>
      </trkpt>
      <trkpt lat="46.04244" lon="5.7027">
        <ele>1040.8</ele>
        <time>2019-07-10T23:09:19Z</time>
      </trkpt>
      <trkpt lat="46.04325" lon="5.7021">
        <ele>1043</ele>
        <time>2019-07-10T23:09:19Z</time>
      </trkpt>
      <trkpt lat="46.04352" lon="5.70205">
        <ele>1043.7</ele>
        <time>2019-07-10T23:09:19Z</time>
      </trkpt>
      <trkpt lat="46.04381" lon="5.70204">
        <ele>1044.7</ele>
        <time>2019-07-10T23:09:19Z</time>
      </trkpt>
      <trkpt lat="46.04449" lon="5.70184">
        <ele>1048.2</ele>
        <time>2019-07-10T23:09:19Z</time>
      </trkpt>
      <trkpt lat="46.04509" lon="5.70163">
        <ele>1050.4</ele>
        <time>2019-07-10T23:09:19Z</time>
      </trkpt>
      <trkpt lat="46.04528" lon="5.70151">
        <ele>1051.6</ele>
        <time>2019-07-10T23:09:19Z</time>
      </trkpt>
      <trkpt lat="46.04543" lon="5.70133">
        <ele>1052.5</ele>
        <time>2019-07-10T23:09:19Z</time>
      </trkpt>
      <trkpt lat="46.04579" lon="5.70077">
        <ele>1055</ele>
        <time>2019-07-10T23:09:19Z</time>
      </trkpt>
      <trkpt lat="46.04617" lon="5.70051">
        <ele>1057.3</ele>
        <time>2019-07-10T23:09:19Z</time>
      </trkpt>
      <trkpt lat="46.04657" lon="5.70007">
        <ele>1059.7</ele>
        <time>2019-07-10T23:09:19Z</time>
      </trkpt>
      <trkpt lat="46.047" lon="5.69973">
        <ele>1061.9</ele>
        <time>2019-07-10T23:09:19Z</time>
      </trkpt>
      <trkpt lat="46.04732" lon="5.69939">
        <ele>1064.6</ele>
        <time>2019-07-10T23:09:19Z</time>
      </trkpt>
      <trkpt lat="46.04748" lon="5.69924">
        <ele>1064.9</ele>
        <time>2019-07-10T23:09:19Z</time>
      </trkpt>
      <trkpt lat="46.04757" lon="5.69911">
        <ele>1066.2</ele>
        <time>2019-07-10T23:09:19Z</time>
      </trkpt>
      <trkpt lat="46.04773" lon="5.69898">
        <ele>1067.1</ele>
        <time>2019-07-10T23:09:19Z</time>
      </trkpt>
      <trkpt lat="46.04797" lon="5.69888">
        <ele>1067.1</ele>
        <time>2019-07-10T23:09:19Z</time>
      </trkpt>
      <trkpt lat="46.04819" lon="5.69881">
        <ele>1068.2</ele>
        <time>2019-07-10T23:09:19Z</time>
      </trkpt>
      <trkpt lat="46.04839" lon="5.69883">
        <ele>1068.7</ele>
        <time>2019-07-10T23:09:19Z</time>
      </trkpt>
      <trkpt lat="46.04858" lon="5.69897">
        <ele>1069.8</ele>
        <time>2019-07-10T23:09:19Z</time>
      </trkpt>
      <trkpt lat="46.04865" lon="5.69908">
        <ele>1070.2</ele>
        <time>2019-07-10T23:09:19Z</time>
      </trkpt>
      <trkpt lat="46.04875" lon="5.69918">
        <ele>1070.1</ele>
        <time>2019-07-10T23:09:19Z</time>
      </trkpt>
      <trkpt lat="46.04889" lon="5.69923">
        <ele>1070.5</ele>
        <time>2019-07-10T23:09:19Z</time>
      </trkpt>
      <trkpt lat="46.04904" lon="5.6992">
        <ele>1071.2</ele>
        <time>2019-07-10T23:09:19Z</time>
      </trkpt>
      <trkpt lat="46.04928" lon="5.6992">
        <ele>1073.6</ele>
        <time>2019-07-10T23:09:19Z</time>
      </trkpt>
      <trkpt lat="46.04937" lon="5.69925">
        <ele>1074.9</ele>
        <time>2019-07-10T23:09:19Z</time>
      </trkpt>
      <trkpt lat="46.0495" lon="5.69937">
        <ele>1076.7</ele>
        <time>2019-07-10T23:09:19Z</time>
      </trkpt>
      <trkpt lat="46.05018" lon="5.69984">
        <ele>1082.3</ele>
        <time>2019-07-10T23:09:19Z</time>
      </trkpt>
      <trkpt lat="46.05039" lon="5.69997">
        <ele>1083.4</ele>
        <time>2019-07-10T23:09:19Z</time>
      </trkpt>
      <trkpt lat="46.05053" lon="5.70002">
        <ele>1083.9</ele>
        <time>2019-07-10T23:09:19Z</time>
      </trkpt>
      <trkpt lat="46.05072" lon="5.70002">
        <ele>1085.8</ele>
        <time>2019-07-10T23:09:19Z</time>
      </trkpt>
      <trkpt lat="46.05084" lon="5.70005">
        <ele>1087.1</ele>
        <time>2019-07-10T23:09:19Z</time>
      </trkpt>
      <trkpt lat="46.05114" lon="5.69989">
        <ele>1090.6</ele>
        <time>2019-07-10T23:09:19Z</time>
      </trkpt>
      <trkpt lat="46.05128" lon="5.69989">
        <ele>1093.3</ele>
        <time>2019-07-10T23:09:19Z</time>
      </trkpt>
      <trkpt lat="46.05174" lon="5.70043">
        <ele>1100</ele>
        <time>2019-07-10T23:09:19Z</time>
      </trkpt>
      <trkpt lat="46.05207" lon="5.70092">
        <ele>1107.5</ele>
        <time>2019-07-10T23:09:19Z</time>
      </trkpt>
      <trkpt lat="46.05224" lon="5.70074">
        <ele>1110.2</ele>
        <time>2019-07-10T23:09:19Z</time>
      </trkpt>
      <trkpt lat="46.05256" lon="5.7004">
        <ele>1113.5</ele>
        <time>2019-07-10T23:09:19Z</time>
      </trkpt>
      <trkpt lat="46.05275" lon="5.70029">
        <ele>1114.8</ele>
        <time>2019-07-10T23:09:19Z</time>
      </trkpt>
      <trkpt lat="46.05295" lon="5.70023">
        <ele>1116.4</ele>
        <time>2019-07-10T23:09:19Z</time>
      </trkpt>
      <trkpt lat="46.0531" lon="5.70015">
        <ele>1117.9</ele>
        <time>2019-07-10T23:09:19Z</time>
      </trkpt>
      <trkpt lat="46.05326" lon="5.70001">
        <ele>1119.5</ele>
        <time>2019-07-10T23:09:19Z</time>
      </trkpt>
      <trkpt lat="46.05339" lon="5.7">
        <ele>1120.6</ele>
        <time>2019-07-10T23:09:19Z</time>
      </trkpt>
      <trkpt lat="46.05355" lon="5.70001">
        <ele>1122.3</ele>
        <time>2019-07-10T23:09:19Z</time>
      </trkpt>
      <trkpt lat="46.05382" lon="5.69991">
        <ele>1124.9</ele>
        <time>2019-07-10T23:09:19Z</time>
      </trkpt>
      <trkpt lat="46.05397" lon="5.69988">
        <ele>1126.2</ele>
        <time>2019-07-10T23:09:19Z</time>
      </trkpt>
      <trkpt lat="46.0541" lon="5.69993">
        <ele>1127.3</ele>
        <time>2019-07-10T23:09:19Z</time>
      </trkpt>
      <trkpt lat="46.05423" lon="5.70008">
        <ele>1128.7</ele>
        <time>2019-07-10T23:09:19Z</time>
      </trkpt>
      <trkpt lat="46.05441" lon="5.70036">
        <ele>1130.8</ele>
        <time>2019-07-10T23:09:19Z</time>
      </trkpt>
      <trkpt lat="46.05451" lon="5.70061">
        <ele>1131.4</ele>
        <time>2019-07-10T23:09:19Z</time>
      </trkpt>
      <trkpt lat="46.05468" lon="5.70111">
        <ele>1133</ele>
        <time>2019-07-10T23:09:19Z</time>
      </trkpt>
      <trkpt lat="46.05477" lon="5.70126">
        <ele>1133.2</ele>
        <time>2019-07-10T23:09:19Z</time>
      </trkpt>
      <trkpt lat="46.05491" lon="5.70144">
        <ele>1133.7</ele>
        <time>2019-07-10T23:09:19Z</time>
      </trkpt>
      <trkpt lat="46.05501" lon="5.70149">
        <ele>1134.1</ele>
        <time>2019-07-10T23:09:19Z</time>
      </trkpt>
      <trkpt lat="46.05507" lon="5.70148">
        <ele>1134.5</ele>
        <time>2019-07-10T23:09:19Z</time>
      </trkpt>
      <trkpt lat="46.05514" lon="5.7013">
        <ele>1135</ele>
        <time>2019-07-10T23:09:19Z</time>
      </trkpt>
      <trkpt lat="46.05516" lon="5.70112">
        <ele>1135.2</ele>
        <time>2019-07-10T23:09:19Z</time>
      </trkpt>
      <trkpt lat="46.05522" lon="5.70095">
        <ele>1135.6</ele>
        <time>2019-07-10T23:09:19Z</time>
      </trkpt>
      <trkpt lat="46.05535" lon="5.70093">
        <ele>1136.3</ele>
        <time>2019-07-10T23:09:19Z</time>
      </trkpt>
      <trkpt lat="46.0555" lon="5.70091">
        <ele>1136.8</ele>
        <time>2019-07-10T23:09:19Z</time>
      </trkpt>
      <trkpt lat="46.05568" lon="5.70084">
        <ele>1137</ele>
        <time>2019-07-10T23:09:19Z</time>
      </trkpt>
      <trkpt lat="46.05586" lon="5.70093">
        <ele>1137.3</ele>
        <time>2019-07-10T23:09:19Z</time>
      </trkpt>
      <trkpt lat="46.05601" lon="5.70105">
        <ele>1137.8</ele>
        <time>2019-07-10T23:09:19Z</time>
      </trkpt>
      <trkpt lat="46.05619" lon="5.70127">
        <ele>1137.7</ele>
        <time>2019-07-10T23:09:19Z</time>
      </trkpt>
      <trkpt lat="46.05639" lon="5.70146">
        <ele>1137</ele>
        <time>2019-07-10T23:09:19Z</time>
      </trkpt>
      <trkpt lat="46.05659" lon="5.70154">
        <ele>1136.7</ele>
        <time>2019-07-10T23:09:19Z</time>
      </trkpt>
      <trkpt lat="46.05777" lon="5.70239">
        <ele>1141.6</ele>
        <time>2019-07-10T23:09:19Z</time>
      </trkpt>
      <trkpt lat="46.05795" lon="5.70247">
        <ele>1141.8</ele>
        <time>2019-07-10T23:09:19Z</time>
      </trkpt>
      <trkpt lat="46.05838" lon="5.70254">
        <ele>1141.1</ele>
        <time>2019-07-10T23:09:19Z</time>
      </trkpt>
      <trkpt lat="46.05885" lon="5.70264">
        <ele>1140.6</ele>
        <time>2019-07-10T23:09:19Z</time>
      </trkpt>
      <trkpt lat="46.05922" lon="5.70276">
        <ele>1143.3</ele>
        <time>2019-07-10T23:09:19Z</time>
      </trkpt>
      <trkpt lat="46.05943" lon="5.70287">
        <ele>1145.5</ele>
        <time>2019-07-10T23:09:19Z</time>
      </trkpt>
      <trkpt lat="46.06003" lon="5.70358">
        <ele>1153</ele>
        <time>2019-07-10T23:09:19Z</time>
      </trkpt>
      <trkpt lat="46.06015" lon="5.70367">
        <ele>1154.1</ele>
        <time>2019-07-10T23:09:19Z</time>
      </trkpt>
      <trkpt lat="46.06019" lon="5.7037">
        <ele>1154.4</ele>
        <time>2019-07-10T23:09:19Z</time>
      </trkpt>
      <trkpt lat="46.06019" lon="5.7037">
        <ele>1154.4</ele>
        <time>2019-07-10T23:09:19Z</time>
      </trkpt>
      <trkpt lat="46.0605" lon="5.70387">
        <ele>1155</ele>
        <time>2019-07-10T23:09:19Z</time>
      </trkpt>
      <trkpt lat="46.06094" lon="5.7041">
        <ele>1157.8</ele>
        <time>2019-07-10T23:09:19Z</time>
      </trkpt>
      <trkpt lat="46.06136" lon="5.70428">
        <ele>1163</ele>
        <time>2019-07-10T23:09:19Z</time>
      </trkpt>
      <trkpt lat="46.06156" lon="5.70448">
        <ele>1163.6</ele>
        <time>2019-07-10T23:09:19Z</time>
      </trkpt>
      <trkpt lat="46.06167" lon="5.70465">
        <ele>1164.9</ele>
        <time>2019-07-10T23:09:19Z</time>
      </trkpt>
      <trkpt lat="46.06176" lon="5.70476">
        <ele>1165.4</ele>
        <time>2019-07-10T23:09:19Z</time>
      </trkpt>
      <trkpt lat="46.06187" lon="5.70482">
        <ele>1164.3</ele>
        <time>2019-07-10T23:09:19Z</time>
      </trkpt>
      <trkpt lat="46.06197" lon="5.70475">
        <ele>1163.7</ele>
        <time>2019-07-10T23:09:19Z</time>
      </trkpt>
      <trkpt lat="46.06202" lon="5.70464">
        <ele>1164.6</ele>
        <time>2019-07-10T23:09:19Z</time>
      </trkpt>
      <trkpt lat="46.06205" lon="5.70448">
        <ele>1164.9</ele>
        <time>2019-07-10T23:09:19Z</time>
      </trkpt>
      <trkpt lat="46.06205" lon="5.70425">
        <ele>1165.6</ele>
        <time>2019-07-10T23:09:19Z</time>
      </trkpt>
      <trkpt lat="46.06208" lon="5.70411">
        <ele>1166.1</ele>
        <time>2019-07-10T23:09:19Z</time>
      </trkpt>
      <trkpt lat="46.06254" lon="5.70319">
        <ele>1169.8</ele>
        <time>2019-07-10T23:09:19Z</time>
      </trkpt>
      <trkpt lat="46.06313" lon="5.70249">
        <ele>1168.2</ele>
        <time>2019-07-10T23:09:19Z</time>
      </trkpt>
      <trkpt lat="46.06346" lon="5.70217">
        <ele>1166.4</ele>
        <time>2019-07-10T23:09:19Z</time>
      </trkpt>
      <trkpt lat="46.06347" lon="5.70241">
        <ele>1167.9</ele>
        <time>2019-07-10T23:09:19Z</time>
      </trkpt>
      <trkpt lat="46.06335" lon="5.703">
        <ele>1172.6</ele>
        <time>2019-07-10T23:09:19Z</time>
      </trkpt>
      <trkpt lat="46.06335" lon="5.70341">
        <ele>1174.6</ele>
        <time>2019-07-10T23:09:19Z</time>
      </trkpt>
      <trkpt lat="46.06347" lon="5.70414">
        <ele>1177</ele>
        <time>2019-07-10T23:09:19Z</time>
      </trkpt>
      <trkpt lat="46.06354" lon="5.70487">
        <ele>1179.7</ele>
        <time>2019-07-10T23:09:19Z</time>
      </trkpt>
      <trkpt lat="46.06398" lon="5.70574">
        <ele>1184.7</ele>
        <time>2019-07-10T23:09:19Z</time>
      </trkpt>
      <trkpt lat="46.06419" lon="5.70631">
        <ele>1189.3</ele>
        <time>2019-07-10T23:09:19Z</time>
      </trkpt>
      <trkpt lat="46.06419" lon="5.70651">
        <ele>1190.7</ele>
        <time>2019-07-10T23:09:19Z</time>
      </trkpt>
      <trkpt lat="46.06412" lon="5.70682">
        <ele>1192.6</ele>
        <time>2019-07-10T23:09:19Z</time>
      </trkpt>
      <trkpt lat="46.06403" lon="5.70706">
        <ele>1194.5</ele>
        <time>2019-07-10T23:09:19Z</time>
      </trkpt>
      <trkpt lat="46.06399" lon="5.70732">
        <ele>1196.9</ele>
        <time>2019-07-10T23:09:19Z</time>
      </trkpt>
      <trkpt lat="46.06397" lon="5.70763">
        <ele>1199.8</ele>
        <time>2019-07-10T23:09:19Z</time>
      </trkpt>
      <trkpt lat="46.06398" lon="5.70793">
        <ele>1201.7</ele>
        <time>2019-07-10T23:09:19Z</time>
      </trkpt>
      <trkpt lat="46.06408" lon="5.70823">
        <ele>1202.5</ele>
        <time>2019-07-10T23:09:19Z</time>
      </trkpt>
      <trkpt lat="46.06433" lon="5.70914">
        <ele>1209</ele>
        <time>2019-07-10T23:09:19Z</time>
      </trkpt>
      <trkpt lat="46.06441" lon="5.70928">
        <ele>1210.5</ele>
        <time>2019-07-10T23:09:19Z</time>
      </trkpt>
      <trkpt lat="46.06455" lon="5.70934">
        <ele>1212.4</ele>
        <time>2019-07-10T23:09:19Z</time>
      </trkpt>
      <trkpt lat="46.06532" lon="5.70937">
        <ele>1218.5</ele>
        <time>2019-07-10T23:09:19Z</time>
      </trkpt>
      <trkpt lat="46.06686" lon="5.70942">
        <ele>1222.9</ele>
        <time>2019-07-10T23:09:19Z</time>
      </trkpt>
      <trkpt lat="46.06715" lon="5.70944">
        <ele>1222.2</ele>
        <time>2019-07-10T23:09:19Z</time>
      </trkpt>
      <trkpt lat="46.06759" lon="5.70934">
        <ele>1221.9</ele>
        <time>2019-07-10T23:09:19Z</time>
      </trkpt>
      <trkpt lat="46.06786" lon="5.70937">
        <ele>1223.4</ele>
        <time>2019-07-10T23:09:19Z</time>
      </trkpt>
      <trkpt lat="46.06823" lon="5.70959">
        <ele>1227.6</ele>
        <time>2019-07-10T23:09:19Z</time>
      </trkpt>
      <trkpt lat="46.06841" lon="5.70974">
        <ele>1229.5</ele>
        <time>2019-07-10T23:09:19Z</time>
      </trkpt>
      <trkpt lat="46.06891" lon="5.70985">
        <ele>1231.9</ele>
        <time>2019-07-10T23:09:19Z</time>
      </trkpt>
      <trkpt lat="46.06919" lon="5.70987">
        <ele>1231.4</ele>
        <time>2019-07-10T23:09:19Z</time>
      </trkpt>
      <trkpt lat="46.06944" lon="5.70987">
        <ele>1230.5</ele>
        <time>2019-07-10T23:09:19Z</time>
      </trkpt>
      <trkpt lat="46.0698" lon="5.70982">
        <ele>1229</ele>
        <time>2019-07-10T23:09:19Z</time>
      </trkpt>
      <trkpt lat="46.07015" lon="5.7097">
        <ele>1226.5</ele>
        <time>2019-07-10T23:09:19Z</time>
      </trkpt>
      <trkpt lat="46.07049" lon="5.70952">
        <ele>1223.2</ele>
        <time>2019-07-10T23:09:19Z</time>
      </trkpt>
      <trkpt lat="46.07196" lon="5.70885">
        <ele>1217.2</ele>
        <time>2019-07-10T23:09:19Z</time>
      </trkpt>
      <trkpt lat="46.07342" lon="5.70839">
        <ele>1212</ele>
        <time>2019-07-10T23:09:19Z</time>
      </trkpt>
      <trkpt lat="46.07387" lon="5.70821">
        <ele>1214.5</ele>
        <time>2019-07-10T23:09:19Z</time>
      </trkpt>
      <trkpt lat="46.07432" lon="5.70797">
        <ele>1213.2</ele>
        <time>2019-07-10T23:09:19Z</time>
      </trkpt>
      <trkpt lat="46.07492" lon="5.70738">
        <ele>1206.8</ele>
        <time>2019-07-10T23:09:19Z</time>
      </trkpt>
      <trkpt lat="46.07521" lon="5.70717">
        <ele>1206.4</ele>
        <time>2019-07-10T23:09:19Z</time>
      </trkpt>
      <trkpt lat="46.07619" lon="5.7066">
        <ele>1203.3</ele>
        <time>2019-07-10T23:09:19Z</time>
      </trkpt>
      <trkpt lat="46.07698" lon="5.7062">
        <ele>1206</ele>
        <time>2019-07-10T23:09:19Z</time>
      </trkpt>
      <trkpt lat="46.07733" lon="5.70607">
        <ele>1206.4</ele>
        <time>2019-07-10T23:09:19Z</time>
      </trkpt>
      <trkpt lat="46.07779" lon="5.70594">
        <ele>1207.5</ele>
        <time>2019-07-10T23:09:19Z</time>
      </trkpt>
      <trkpt lat="46.07803" lon="5.70589">
        <ele>1206</ele>
        <time>2019-07-10T23:09:19Z</time>
      </trkpt>
      <trkpt lat="46.07814" lon="5.7058">
        <ele>1206.1</ele>
        <time>2019-07-10T23:09:19Z</time>
      </trkpt>
      <trkpt lat="46.07825" lon="5.70565">
        <ele>1206.6</ele>
        <time>2019-07-10T23:09:19Z</time>
      </trkpt>
      <trkpt lat="46.07849" lon="5.70516">
        <ele>1206.9</ele>
        <time>2019-07-10T23:09:19Z</time>
      </trkpt>
      <trkpt lat="46.0786" lon="5.70503">
        <ele>1206.1</ele>
        <time>2019-07-10T23:09:19Z</time>
      </trkpt>
      <trkpt lat="46.07888" lon="5.70483">
        <ele>1205.1</ele>
        <time>2019-07-10T23:09:19Z</time>
      </trkpt>
      <trkpt lat="46.07926" lon="5.70461">
        <ele>1205.7</ele>
        <time>2019-07-10T23:09:19Z</time>
      </trkpt>
      <trkpt lat="46.07966" lon="5.70451">
        <ele>1205.8</ele>
        <time>2019-07-10T23:09:19Z</time>
      </trkpt>
      <trkpt lat="46.08108" lon="5.70404">
        <ele>1206</ele>
        <time>2019-07-10T23:09:19Z</time>
      </trkpt>
      <trkpt lat="46.08218" lon="5.70372">
        <ele>1206.6</ele>
        <time>2019-07-10T23:09:19Z</time>
      </trkpt>
      <trkpt lat="46.08298" lon="5.70364">
        <ele>1208</ele>
        <time>2019-07-10T23:09:19Z</time>
      </trkpt>
      <trkpt lat="46.08328" lon="5.70365">
        <ele>1208.8</ele>
        <time>2019-07-10T23:09:19Z</time>
      </trkpt>
      <trkpt lat="46.08348" lon="5.70374">
        <ele>1209</ele>
        <time>2019-07-10T23:09:19Z</time>
      </trkpt>
      <trkpt lat="46.08357" lon="5.70381">
        <ele>1209</ele>
        <time>2019-07-10T23:09:19Z</time>
      </trkpt>
      <trkpt lat="46.08397" lon="5.70406">
        <ele>1210.6</ele>
        <time>2019-07-10T23:09:19Z</time>
      </trkpt>
      <trkpt lat="46.08417" lon="5.70424">
        <ele>1211</ele>
        <time>2019-07-10T23:09:19Z</time>
      </trkpt>
      <trkpt lat="46.08434" lon="5.70442">
        <ele>1212.3</ele>
        <time>2019-07-10T23:09:19Z</time>
      </trkpt>
      <trkpt lat="46.08444" lon="5.70459">
        <ele>1212.5</ele>
        <time>2019-07-10T23:09:19Z</time>
      </trkpt>
      <trkpt lat="46.08449" lon="5.70488">
        <ele>1212.7</ele>
        <time>2019-07-10T23:09:19Z</time>
      </trkpt>
      <trkpt lat="46.08489" lon="5.70421">
        <ele>1211.6</ele>
        <time>2019-07-10T23:09:19Z</time>
      </trkpt>
      <trkpt lat="46.08516" lon="5.70405">
        <ele>1208.4</ele>
        <time>2019-07-10T23:09:19Z</time>
      </trkpt>
      <trkpt lat="46.08599" lon="5.70417">
        <ele>1206.6</ele>
        <time>2019-07-10T23:09:19Z</time>
      </trkpt>
      <trkpt lat="46.08617" lon="5.70414">
        <ele>1207.8</ele>
        <time>2019-07-10T23:09:19Z</time>
      </trkpt>
      <trkpt lat="46.08658" lon="5.7039">
        <ele>1202.5</ele>
        <time>2019-07-10T23:09:19Z</time>
      </trkpt>
      <trkpt lat="46.08688" lon="5.70398">
        <ele>1197.6</ele>
        <time>2019-07-10T23:09:19Z</time>
      </trkpt>
      <trkpt lat="46.08711" lon="5.7042">
        <ele>1195</ele>
        <time>2019-07-10T23:09:19Z</time>
      </trkpt>
      <trkpt lat="46.08741" lon="5.70435">
        <ele>1191.6</ele>
        <time>2019-07-10T23:09:19Z</time>
      </trkpt>
      <trkpt lat="46.08779" lon="5.70437">
        <ele>1189.1</ele>
        <time>2019-07-10T23:09:19Z</time>
      </trkpt>
      <trkpt lat="46.08818" lon="5.70434">
        <ele>1190.4</ele>
        <time>2019-07-10T23:09:19Z</time>
      </trkpt>
      <trkpt lat="46.08889" lon="5.70397">
        <ele>1187.5</ele>
        <time>2019-07-10T23:09:19Z</time>
      </trkpt>
      <trkpt lat="46.08948" lon="5.70395">
        <ele>1183.4</ele>
        <time>2019-07-10T23:09:19Z</time>
      </trkpt>
      <trkpt lat="46.08983" lon="5.70414">
        <ele>1181.1</ele>
        <time>2019-07-10T23:09:19Z</time>
      </trkpt>
      <trkpt lat="46.08986" lon="5.7042">
        <ele>1181.4</ele>
        <time>2019-07-10T23:09:19Z</time>
      </trkpt>
      <trkpt lat="46.093" lon="5.70671">
        <ele>1195.5</ele>
        <time>2019-07-10T23:09:19Z</time>
      </trkpt>
      <trkpt lat="46.09305" lon="5.70665">
        <ele>1194.9</ele>
        <time>2019-07-10T23:09:19Z</time>
      </trkpt>
      <trkpt lat="46.09303" lon="5.7066">
        <ele>1194.7</ele>
        <time>2019-07-10T23:09:19Z</time>
      </trkpt>
      <trkpt lat="46.09301" lon="5.70651">
        <ele>1194.3</ele>
        <time>2019-07-10T23:09:19Z</time>
      </trkpt>
      <trkpt lat="46.09302" lon="5.70639">
        <ele>1193.9</ele>
        <time>2019-07-10T23:09:19Z</time>
      </trkpt>
      <trkpt lat="46.09303" lon="5.70633">
        <ele>1193.5</ele>
        <time>2019-07-10T23:09:19Z</time>
      </trkpt>
      <trkpt lat="46.09306" lon="5.70621">
        <ele>1192.7</ele>
        <time>2019-07-10T23:09:19Z</time>
      </trkpt>
      <trkpt lat="46.09342" lon="5.70455">
        <ele>1183.1</ele>
        <time>2019-07-10T23:09:19Z</time>
      </trkpt>
      <trkpt lat="46.09351" lon="5.70436">
        <ele>1181.9</ele>
        <time>2019-07-10T23:09:19Z</time>
      </trkpt>
      <trkpt lat="46.09358" lon="5.70431">
        <ele>1181.6</ele>
        <time>2019-07-10T23:09:19Z</time>
      </trkpt>
      <trkpt lat="46.09367" lon="5.70431">
        <ele>1181.3</ele>
        <time>2019-07-10T23:09:19Z</time>
      </trkpt>
      <trkpt lat="46.09513" lon="5.70475">
        <ele>1179.6</ele>
        <time>2019-07-10T23:09:19Z</time>
      </trkpt>
      <trkpt lat="46.09577" lon="5.70501">
        <ele>1178</ele>
        <time>2019-07-10T23:09:19Z</time>
      </trkpt>
      <trkpt lat="46.09633" lon="5.70516">
        <ele>1178.6</ele>
        <time>2019-07-10T23:09:19Z</time>
      </trkpt>
      <trkpt lat="46.09692" lon="5.70538">
        <ele>1177.9</ele>
        <time>2019-07-10T23:09:19Z</time>
      </trkpt>
      <trkpt lat="46.0973" lon="5.70541">
        <ele>1177.2</ele>
        <time>2019-07-10T23:09:19Z</time>
      </trkpt>
      <trkpt lat="46.09775" lon="5.70552">
        <ele>1175.5</ele>
        <time>2019-07-10T23:09:19Z</time>
      </trkpt>
      <trkpt lat="46.09811" lon="5.70558">
        <ele>1174.8</ele>
        <time>2019-07-10T23:09:19Z</time>
      </trkpt>
      <trkpt lat="46.09832" lon="5.70557">
        <ele>1174</ele>
        <time>2019-07-10T23:09:19Z</time>
      </trkpt>
      <trkpt lat="46.09854" lon="5.70551">
        <ele>1173.3</ele>
        <time>2019-07-10T23:09:19Z</time>
      </trkpt>
      <trkpt lat="46.09911" lon="5.70523">
        <ele>1172.3</ele>
        <time>2019-07-10T23:09:19Z</time>
      </trkpt>
      <trkpt lat="46.09935" lon="5.70507">
        <ele>1172.3</ele>
        <time>2019-07-10T23:09:19Z</time>
      </trkpt>
      <trkpt lat="46.1001" lon="5.70443">
        <ele>1172.2</ele>
        <time>2019-07-10T23:09:19Z</time>
      </trkpt>
      <trkpt lat="46.10075" lon="5.70398">
        <ele>1178.9</ele>
        <time>2019-07-10T23:09:19Z</time>
      </trkpt>
      <trkpt lat="46.10087" lon="5.70384">
        <ele>1180.3</ele>
        <time>2019-07-10T23:09:19Z</time>
      </trkpt>
      <trkpt lat="46.10098" lon="5.70367">
        <ele>1180.2</ele>
        <time>2019-07-10T23:09:19Z</time>
      </trkpt>
      <trkpt lat="46.10108" lon="5.70359">
        <ele>1179.4</ele>
        <time>2019-07-10T23:09:19Z</time>
      </trkpt>
      <trkpt lat="46.10119" lon="5.70355">
        <ele>1178.6</ele>
        <time>2019-07-10T23:09:19Z</time>
      </trkpt>
      <trkpt lat="46.10156" lon="5.70349">
        <ele>1175.7</ele>
        <time>2019-07-10T23:09:19Z</time>
      </trkpt>
      <trkpt lat="46.10166" lon="5.70345">
        <ele>1175.1</ele>
        <time>2019-07-10T23:09:19Z</time>
      </trkpt>
      <trkpt lat="46.10175" lon="5.70337">
        <ele>1174.4</ele>
        <time>2019-07-10T23:09:19Z</time>
      </trkpt>
      <trkpt lat="46.1018" lon="5.70328">
        <ele>1174</ele>
        <time>2019-07-10T23:09:19Z</time>
      </trkpt>
      <trkpt lat="46.10206" lon="5.70239">
        <ele>1171.2</ele>
        <time>2019-07-10T23:09:19Z</time>
      </trkpt>
      <trkpt lat="46.10232" lon="5.70198">
        <ele>1171.8</ele>
        <time>2019-07-10T23:09:19Z</time>
      </trkpt>
      <trkpt lat="46.10252" lon="5.70171">
        <ele>1171.9</ele>
        <time>2019-07-10T23:09:19Z</time>
      </trkpt>
      <trkpt lat="46.10269" lon="5.70157">
        <ele>1171.6</ele>
        <time>2019-07-10T23:09:19Z</time>
      </trkpt>
      <trkpt lat="46.10288" lon="5.70151">
        <ele>1171</ele>
        <time>2019-07-10T23:09:19Z</time>
      </trkpt>
      <trkpt lat="46.10341" lon="5.70148">
        <ele>1169</ele>
        <time>2019-07-10T23:09:19Z</time>
      </trkpt>
      <trkpt lat="46.10405" lon="5.70144">
        <ele>1168.7</ele>
        <time>2019-07-10T23:09:19Z</time>
      </trkpt>
      <trkpt lat="46.10406" lon="5.70129">
        <ele>1168.9</ele>
        <time>2019-07-10T23:09:19Z</time>
      </trkpt>
      <trkpt lat="46.10406" lon="5.70129">
        <ele>1168.9</ele>
        <time>2019-07-10T23:09:19Z</time>
      </trkpt>
      <trkpt lat="46.10407" lon="5.70106">
        <ele>1169.2</ele>
        <time>2019-07-10T23:09:19Z</time>
      </trkpt>
      <trkpt lat="46.10415" lon="5.7007">
        <ele>1167.6</ele>
        <time>2019-07-10T23:09:19Z</time>
      </trkpt>
      <trkpt lat="46.10431" lon="5.70058">
        <ele>1167.2</ele>
        <time>2019-07-10T23:09:19Z</time>
      </trkpt>
      <trkpt lat="46.10457" lon="5.70057">
        <ele>1166.7</ele>
        <time>2019-07-10T23:09:19Z</time>
      </trkpt>
      <trkpt lat="46.10478" lon="5.70064">
        <ele>1166.4</ele>
        <time>2019-07-10T23:09:19Z</time>
      </trkpt>
      <trkpt lat="46.10517" lon="5.70064">
        <ele>1164.8</ele>
        <time>2019-07-10T23:09:19Z</time>
      </trkpt>
      <trkpt lat="46.1058" lon="5.70041">
        <ele>1166.1</ele>
        <time>2019-07-10T23:09:19Z</time>
      </trkpt>
      <trkpt lat="46.10667" lon="5.70016">
        <ele>1160</ele>
        <time>2019-07-10T23:09:19Z</time>
      </trkpt>
      <trkpt lat="46.10747" lon="5.70026">
        <ele>1161.5</ele>
        <time>2019-07-10T23:09:19Z</time>
      </trkpt>
      <trkpt lat="46.10783" lon="5.70019">
        <ele>1158.4</ele>
        <time>2019-07-10T23:09:19Z</time>
      </trkpt>
      <trkpt lat="46.10827" lon="5.70006">
        <ele>1157.7</ele>
        <time>2019-07-10T23:09:19Z</time>
      </trkpt>
      <trkpt lat="46.1085" lon="5.70007">
        <ele>1157.1</ele>
        <time>2019-07-10T23:09:19Z</time>
      </trkpt>
      <trkpt lat="46.10901" lon="5.70027">
        <ele>1154.4</ele>
        <time>2019-07-10T23:09:19Z</time>
      </trkpt>
      <trkpt lat="46.10917" lon="5.70017">
        <ele>1152.9</ele>
        <time>2019-07-10T23:09:19Z</time>
      </trkpt>
      <trkpt lat="46.1093" lon="5.69993">
        <ele>1152.3</ele>
        <time>2019-07-10T23:09:19Z</time>
      </trkpt>
      <trkpt lat="46.10935" lon="5.69969">
        <ele>1150</ele>
        <time>2019-07-10T23:09:19Z</time>
      </trkpt>
      <trkpt lat="46.10935" lon="5.69958">
        <ele>1150.3</ele>
        <time>2019-07-10T23:09:19Z</time>
      </trkpt>
      <trkpt lat="46.10932" lon="5.69944">
        <ele>1149.9</ele>
        <time>2019-07-10T23:09:19Z</time>
      </trkpt>
      <trkpt lat="46.10886" lon="5.69776">
        <ele>1143.6</ele>
        <time>2019-07-10T23:09:19Z</time>
      </trkpt>
      <trkpt lat="46.10867" lon="5.69733">
        <ele>1141.5</ele>
        <time>2019-07-10T23:09:19Z</time>
      </trkpt>
      <trkpt lat="46.10865" lon="5.69664">
        <ele>1138.1</ele>
        <time>2019-07-10T23:09:19Z</time>
      </trkpt>
      <trkpt lat="46.10869" lon="5.69516">
        <ele>1136.1</ele>
        <time>2019-07-10T23:09:19Z</time>
      </trkpt>
      <trkpt lat="46.10978" lon="5.69554">
        <ele>1140.4</ele>
        <time>2019-07-10T23:09:19Z</time>
      </trkpt>
      <trkpt lat="46.11007" lon="5.69556">
        <ele>1142.3</ele>
        <time>2019-07-10T23:09:19Z</time>
      </trkpt>
      <trkpt lat="46.11018" lon="5.69556">
        <ele>1142.7</ele>
        <time>2019-07-10T23:09:19Z</time>
      </trkpt>
      <trkpt lat="46.1103" lon="5.69553">
        <ele>1143.4</ele>
        <time>2019-07-10T23:09:19Z</time>
      </trkpt>
      <trkpt lat="46.11041" lon="5.69551">
        <ele>1144.1</ele>
        <time>2019-07-10T23:09:19Z</time>
      </trkpt>
      <trkpt lat="46.11064" lon="5.69541">
        <ele>1145.9</ele>
        <time>2019-07-10T23:09:19Z</time>
      </trkpt>
      <trkpt lat="46.11129" lon="5.69505">
        <ele>1148.3</ele>
        <time>2019-07-10T23:09:19Z</time>
      </trkpt>
      <trkpt lat="46.11268" lon="5.69456">
        <ele>1157.2</ele>
        <time>2019-07-10T23:09:19Z</time>
      </trkpt>
      <trkpt lat="46.11301" lon="5.69437">
        <ele>1159.2</ele>
        <time>2019-07-10T23:09:19Z</time>
      </trkpt>
      <trkpt lat="46.11315" lon="5.69418">
        <ele>1160</ele>
        <time>2019-07-10T23:09:19Z</time>
      </trkpt>
      <trkpt lat="46.11321" lon="5.69399">
        <ele>1159.6</ele>
        <time>2019-07-10T23:09:19Z</time>
      </trkpt>
      <trkpt lat="46.11321" lon="5.69399">
        <ele>1159.6</ele>
        <time>2019-07-10T23:09:19Z</time>
      </trkpt>
      <trkpt lat="46.11325" lon="5.69385">
        <ele>1158.8</ele>
        <time>2019-07-10T23:09:19Z</time>
      </trkpt>
      <trkpt lat="46.11339" lon="5.69392">
        <ele>1158.6</ele>
        <time>2019-07-10T23:09:19Z</time>
      </trkpt>
      <trkpt lat="46.11435" lon="5.69405">
        <ele>1165.7</ele>
        <time>2019-07-10T23:09:19Z</time>
      </trkpt>
      <trkpt lat="46.11489" lon="5.69432">
        <ele>1166.1</ele>
        <time>2019-07-10T23:09:19Z</time>
      </trkpt>
      <trkpt lat="46.11559" lon="5.69451">
        <ele>1166.4</ele>
        <time>2019-07-10T23:09:19Z</time>
      </trkpt>
      <trkpt lat="46.11647" lon="5.69466">
        <ele>1167.1</ele>
        <time>2019-07-10T23:09:19Z</time>
      </trkpt>
      <trkpt lat="46.11691" lon="5.69485">
        <ele>1162</ele>
        <time>2019-07-10T23:09:19Z</time>
      </trkpt>
      <trkpt lat="46.11745" lon="5.69519">
        <ele>1155.4</ele>
        <time>2019-07-10T23:09:19Z</time>
      </trkpt>
      <trkpt lat="46.11795" lon="5.6956">
        <ele>1149.9</ele>
        <time>2019-07-10T23:09:19Z</time>
      </trkpt>
      <trkpt lat="46.11846" lon="5.6957">
        <ele>1149</ele>
        <time>2019-07-10T23:09:19Z</time>
      </trkpt>
      <trkpt lat="46.1188" lon="5.69587">
        <ele>1148.8</ele>
        <time>2019-07-10T23:09:19Z</time>
      </trkpt>
      <trkpt lat="46.11894" lon="5.69604">
        <ele>1149.4</ele>
        <time>2019-07-10T23:09:19Z</time>
      </trkpt>
      <trkpt lat="46.11926" lon="5.69606">
        <ele>1151.6</ele>
        <time>2019-07-10T23:09:19Z</time>
      </trkpt>
      <trkpt lat="46.11956" lon="5.69618">
        <ele>1153.2</ele>
        <time>2019-07-10T23:09:19Z</time>
      </trkpt>
      <trkpt lat="46.11981" lon="5.69615">
        <ele>1153.1</ele>
        <time>2019-07-10T23:09:19Z</time>
      </trkpt>
      <trkpt lat="46.12031" lon="5.69643">
        <ele>1151.8</ele>
        <time>2019-07-10T23:09:19Z</time>
      </trkpt>
      <trkpt lat="46.1209" lon="5.69701">
        <ele>1150.6</ele>
        <time>2019-07-10T23:09:19Z</time>
      </trkpt>
      <trkpt lat="46.12125" lon="5.69719">
        <ele>1151.1</ele>
        <time>2019-07-10T23:09:19Z</time>
      </trkpt>
      <trkpt lat="46.12159" lon="5.69745">
        <ele>1151.4</ele>
        <time>2019-07-10T23:09:19Z</time>
      </trkpt>
      <trkpt lat="46.1217" lon="5.69765">
        <ele>1151.2</ele>
        <time>2019-07-10T23:09:19Z</time>
      </trkpt>
      <trkpt lat="46.12199" lon="5.69783">
        <ele>1150.8</ele>
        <time>2019-07-10T23:09:19Z</time>
      </trkpt>
      <trkpt lat="46.12336" lon="5.69843">
        <ele>1149.2</ele>
        <time>2019-07-10T23:09:19Z</time>
      </trkpt>
      <trkpt lat="46.12555" lon="5.6995">
        <ele>1151.8</ele>
        <time>2019-07-10T23:09:19Z</time>
      </trkpt>
      <trkpt lat="46.12633" lon="5.70031">
        <ele>1150.6</ele>
        <time>2019-07-10T23:09:19Z</time>
      </trkpt>
      <trkpt lat="46.12739" lon="5.70098">
        <ele>1152.7</ele>
        <time>2019-07-10T23:09:19Z</time>
      </trkpt>
      <trkpt lat="46.12779" lon="5.70126">
        <ele>1153</ele>
        <time>2019-07-10T23:09:19Z</time>
      </trkpt>
      <trkpt lat="46.12926" lon="5.70243">
        <ele>1143</ele>
        <time>2019-07-10T23:09:19Z</time>
      </trkpt>
      <trkpt lat="46.12948" lon="5.70264">
        <ele>1140.9</ele>
        <time>2019-07-10T23:09:19Z</time>
      </trkpt>
      <trkpt lat="46.12996" lon="5.7034">
        <ele>1131</ele>
        <time>2019-07-10T23:09:19Z</time>
      </trkpt>
      <trkpt lat="46.13022" lon="5.70373">
        <ele>1127.4</ele>
        <time>2019-07-10T23:09:19Z</time>
      </trkpt>
      <trkpt lat="46.13036" lon="5.70378">
        <ele>1126.3</ele>
        <time>2019-07-10T23:09:19Z</time>
      </trkpt>
      <trkpt lat="46.13051" lon="5.70376">
        <ele>1125.3</ele>
        <time>2019-07-10T23:09:19Z</time>
      </trkpt>
      <trkpt lat="46.13158" lon="5.70245">
        <ele>1123.7</ele>
        <time>2019-07-10T23:09:19Z</time>
      </trkpt>
      <trkpt lat="46.1319" lon="5.702">
        <ele>1126.2</ele>
        <time>2019-07-10T23:09:19Z</time>
      </trkpt>
      <trkpt lat="46.13199" lon="5.70195">
        <ele>1129.4</ele>
        <time>2019-07-10T23:09:19Z</time>
      </trkpt>
      <trkpt lat="46.13201" lon="5.70211">
        <ele>1128.3</ele>
        <time>2019-07-10T23:09:19Z</time>
      </trkpt>
      <trkpt lat="46.13203" lon="5.70234">
        <ele>1128.3</ele>
        <time>2019-07-10T23:09:19Z</time>
      </trkpt>
      <trkpt lat="46.13203" lon="5.70248">
        <ele>1128.6</ele>
        <time>2019-07-10T23:09:19Z</time>
      </trkpt>
      <trkpt lat="46.13199" lon="5.70263">
        <ele>1128.1</ele>
        <time>2019-07-10T23:09:19Z</time>
      </trkpt>
      <trkpt lat="46.13177" lon="5.70309">
        <ele>1127.6</ele>
        <time>2019-07-10T23:09:19Z</time>
      </trkpt>
      <trkpt lat="46.13166" lon="5.70349">
        <ele>1123.5</ele>
        <time>2019-07-10T23:09:19Z</time>
      </trkpt>
      <trkpt lat="46.13161" lon="5.70374">
        <ele>1124</ele>
        <time>2019-07-10T23:09:19Z</time>
      </trkpt>
      <trkpt lat="46.13168" lon="5.70364">
        <ele>1123.3</ele>
        <time>2019-07-10T23:09:19Z</time>
      </trkpt>
      <trkpt lat="46.13168" lon="5.70364">
        <ele>1123.3</ele>
        <time>2019-07-10T23:09:19Z</time>
      </trkpt>
      <trkpt lat="46.13161" lon="5.70374">
        <ele>1124</ele>
        <time>2019-07-10T23:09:19Z</time>
      </trkpt>
      <trkpt lat="46.13147" lon="5.7041">
        <ele>1122.1</ele>
        <time>2019-07-10T23:09:19Z</time>
      </trkpt>
      <trkpt lat="46.13135" lon="5.70454">
        <ele>1117.5</ele>
        <time>2019-07-10T23:09:19Z</time>
      </trkpt>
      <trkpt lat="46.13112" lon="5.70521">
        <ele>1112.9</ele>
        <time>2019-07-10T23:09:19Z</time>
      </trkpt>
      <trkpt lat="46.13053" lon="5.7061">
        <ele>1106</ele>
        <time>2019-07-10T23:09:19Z</time>
      </trkpt>
      <trkpt lat="46.13045" lon="5.70672">
        <ele>1107.1</ele>
        <time>2019-07-10T23:09:19Z</time>
      </trkpt>
      <trkpt lat="46.13037" lon="5.70707">
        <ele>1107.7</ele>
        <time>2019-07-10T23:09:19Z</time>
      </trkpt>
      <trkpt lat="46.13017" lon="5.70728">
        <ele>1108.9</ele>
        <time>2019-07-10T23:09:19Z</time>
      </trkpt>
      <trkpt lat="46.12982" lon="5.70757">
        <ele>1110.5</ele>
        <time>2019-07-10T23:09:19Z</time>
      </trkpt>
      <trkpt lat="46.12958" lon="5.7079">
        <ele>1109.8</ele>
        <time>2019-07-10T23:09:19Z</time>
      </trkpt>
      <trkpt lat="46.12956" lon="5.70802">
        <ele>1109.2</ele>
        <time>2019-07-10T23:09:19Z</time>
      </trkpt>
      <trkpt lat="46.12979" lon="5.70822">
        <ele>1109.1</ele>
        <time>2019-07-10T23:09:19Z</time>
      </trkpt>
      <trkpt lat="46.13112" lon="5.70866">
        <ele>1101</ele>
        <time>2019-07-10T23:09:19Z</time>
      </trkpt>
      <trkpt lat="46.13182" lon="5.70895">
        <ele>1097.1</ele>
        <time>2019-07-10T23:09:19Z</time>
      </trkpt>
      <trkpt lat="46.13264" lon="5.70945">
        <ele>1094.5</ele>
        <time>2019-07-10T23:09:19Z</time>
      </trkpt>
      <trkpt lat="46.13307" lon="5.70966">
        <ele>1093.8</ele>
        <time>2019-07-10T23:09:19Z</time>
      </trkpt>
      <trkpt lat="46.13345" lon="5.71022">
        <ele>1090.3</ele>
        <time>2019-07-10T23:09:19Z</time>
      </trkpt>
      <trkpt lat="46.13353" lon="5.71039">
        <ele>1089.2</ele>
        <time>2019-07-10T23:09:19Z</time>
      </trkpt>
      <trkpt lat="46.13357" lon="5.71048">
        <ele>1089</ele>
        <time>2019-07-10T23:09:19Z</time>
      </trkpt>
      <trkpt lat="46.13359" lon="5.71086">
        <ele>1086.4</ele>
        <time>2019-07-10T23:09:19Z</time>
      </trkpt>
      <trkpt lat="46.1338" lon="5.71103">
        <ele>1085.2</ele>
        <time>2019-07-10T23:09:19Z</time>
      </trkpt>
      <trkpt lat="46.13423" lon="5.71123">
        <ele>1083.5</ele>
        <time>2019-07-10T23:09:19Z</time>
      </trkpt>
      <trkpt lat="46.13507" lon="5.71145">
        <ele>1080</ele>
        <time>2019-07-10T23:09:19Z</time>
      </trkpt>
      <trkpt lat="46.1352" lon="5.71155">
        <ele>1079</ele>
        <time>2019-07-10T23:09:19Z</time>
      </trkpt>
      <trkpt lat="46.13527" lon="5.71171">
        <ele>1076.9</ele>
        <time>2019-07-10T23:09:19Z</time>
      </trkpt>
      <trkpt lat="46.13524" lon="5.71194">
        <ele>1076.2</ele>
        <time>2019-07-10T23:09:19Z</time>
      </trkpt>
      <trkpt lat="46.13521" lon="5.71205">
        <ele>1074.5</ele>
        <time>2019-07-10T23:09:19Z</time>
      </trkpt>
      <trkpt lat="46.13508" lon="5.71213">
        <ele>1073.1</ele>
        <time>2019-07-10T23:09:19Z</time>
      </trkpt>
      <trkpt lat="46.13426" lon="5.71207">
        <ele>1068.8</ele>
        <time>2019-07-10T23:09:19Z</time>
      </trkpt>
      <trkpt lat="46.13406" lon="5.71224">
        <ele>1064.9</ele>
        <time>2019-07-10T23:09:19Z</time>
      </trkpt>
      <trkpt lat="46.13393" lon="5.71244">
        <ele>1064.1</ele>
        <time>2019-07-10T23:09:19Z</time>
      </trkpt>
      <trkpt lat="46.13398" lon="5.71262">
        <ele>1064</ele>
        <time>2019-07-10T23:09:19Z</time>
      </trkpt>
      <trkpt lat="46.1341" lon="5.71283">
        <ele>1063.6</ele>
        <time>2019-07-10T23:09:19Z</time>
      </trkpt>
      <trkpt lat="46.13427" lon="5.71297">
        <ele>1063</ele>
        <time>2019-07-10T23:09:19Z</time>
      </trkpt>
      <trkpt lat="46.13466" lon="5.7131">
        <ele>1063.7</ele>
        <time>2019-07-10T23:09:19Z</time>
      </trkpt>
      <trkpt lat="46.13403" lon="5.71332">
        <ele>1069.3</ele>
        <time>2019-07-10T23:09:19Z</time>
      </trkpt>
      <trkpt lat="46.13358" lon="5.71332">
        <ele>1073.1</ele>
        <time>2019-07-10T23:09:19Z</time>
      </trkpt>
      <trkpt lat="46.13319" lon="5.71324">
        <ele>1076</ele>
        <time>2019-07-10T23:09:19Z</time>
      </trkpt>
      <trkpt lat="46.13284" lon="5.71312">
        <ele>1079</ele>
        <time>2019-07-10T23:09:19Z</time>
      </trkpt>
      <trkpt lat="46.13266" lon="5.71292">
        <ele>1082.3</ele>
        <time>2019-07-10T23:09:19Z</time>
      </trkpt>
      <trkpt lat="46.13243" lon="5.71274">
        <ele>1086.1</ele>
        <time>2019-07-10T23:09:19Z</time>
      </trkpt>
      <trkpt lat="46.13215" lon="5.71269">
        <ele>1088.6</ele>
        <time>2019-07-10T23:09:19Z</time>
      </trkpt>
      <trkpt lat="46.13186" lon="5.7128">
        <ele>1090.8</ele>
        <time>2019-07-10T23:09:19Z</time>
      </trkpt>
      <trkpt lat="46.13177" lon="5.71301">
        <ele>1093.8</ele>
        <time>2019-07-10T23:09:19Z</time>
      </trkpt>
      <trkpt lat="46.13179" lon="5.71318">
        <ele>1095.4</ele>
        <time>2019-07-10T23:09:19Z</time>
      </trkpt>
      <trkpt lat="46.13189" lon="5.71357">
        <ele>1096.6</ele>
        <time>2019-07-10T23:09:19Z</time>
      </trkpt>
      <trkpt lat="46.13194" lon="5.71421">
        <ele>1100.4</ele>
        <time>2019-07-10T23:09:19Z</time>
      </trkpt>
      <trkpt lat="46.1318" lon="5.71454">
        <ele>1103.9</ele>
        <time>2019-07-10T23:09:19Z</time>
      </trkpt>
      <trkpt lat="46.13171" lon="5.7146">
        <ele>1104.7</ele>
        <time>2019-07-10T23:09:19Z</time>
      </trkpt>
      <trkpt lat="46.13144" lon="5.7146">
        <ele>1108.7</ele>
        <time>2019-07-10T23:09:19Z</time>
      </trkpt>
      <trkpt lat="46.13136" lon="5.71464">
        <ele>1110.2</ele>
        <time>2019-07-10T23:09:19Z</time>
      </trkpt>
      <trkpt lat="46.13101" lon="5.71522">
        <ele>1123.6</ele>
        <time>2019-07-10T23:09:19Z</time>
      </trkpt>
      <trkpt lat="46.13077" lon="5.71568">
        <ele>1130.8</ele>
        <time>2019-07-10T23:09:19Z</time>
      </trkpt>
      <trkpt lat="46.13066" lon="5.71599">
        <ele>1132.6</ele>
        <time>2019-07-10T23:09:19Z</time>
      </trkpt>
      <trkpt lat="46.13073" lon="5.71629">
        <ele>1132.1</ele>
        <time>2019-07-10T23:09:19Z</time>
      </trkpt>
      <trkpt lat="46.13038" lon="5.71702">
        <ele>1129.8</ele>
        <time>2019-07-10T23:09:19Z</time>
      </trkpt>
      <trkpt lat="46.13011" lon="5.71787">
        <ele>1134.6</ele>
        <time>2019-07-10T23:09:19Z</time>
      </trkpt>
      <trkpt lat="46.12969" lon="5.7184">
        <ele>1135.3</ele>
        <time>2019-07-10T23:09:19Z</time>
      </trkpt>
      <trkpt lat="46.12925" lon="5.7196">
        <ele>1143</ele>
        <time>2019-07-10T23:09:19Z</time>
      </trkpt>
      <trkpt lat="46.12897" lon="5.72051">
        <ele>1141.2</ele>
        <time>2019-07-10T23:09:19Z</time>
      </trkpt>
      <trkpt lat="46.12874" lon="5.72136">
        <ele>1142.5</ele>
        <time>2019-07-10T23:09:19Z</time>
      </trkpt>
      <trkpt lat="46.12873" lon="5.72143">
        <ele>1142.8</ele>
        <time>2019-07-10T23:09:19Z</time>
      </trkpt>
      <trkpt lat="46.12866" lon="5.72181">
        <ele>1145</ele>
        <time>2019-07-10T23:09:19Z</time>
      </trkpt>
      <trkpt lat="46.12853" lon="5.7223">
        <ele>1147.3</ele>
        <time>2019-07-10T23:09:19Z</time>
      </trkpt>
      <trkpt lat="46.12852" lon="5.72272">
        <ele>1150.6</ele>
        <time>2019-07-10T23:09:19Z</time>
      </trkpt>
      <trkpt lat="46.12864" lon="5.72339">
        <ele>1154.1</ele>
        <time>2019-07-10T23:09:19Z</time>
      </trkpt>
      <trkpt lat="46.1289" lon="5.72498">
        <ele>1164.8</ele>
        <time>2019-07-10T23:09:19Z</time>
      </trkpt>
      <trkpt lat="46.12877" lon="5.72541">
        <ele>1168.2</ele>
        <time>2019-07-10T23:09:19Z</time>
      </trkpt>
      <trkpt lat="46.12871" lon="5.72592">
        <ele>1173.5</ele>
        <time>2019-07-10T23:09:19Z</time>
      </trkpt>
      <trkpt lat="46.1288" lon="5.72639">
        <ele>1178.1</ele>
        <time>2019-07-10T23:09:19Z</time>
      </trkpt>
      <trkpt lat="46.12893" lon="5.72661">
        <ele>1181.8</ele>
        <time>2019-07-10T23:09:19Z</time>
      </trkpt>
      <trkpt lat="46.12921" lon="5.72672">
        <ele>1186.1</ele>
        <time>2019-07-10T23:09:19Z</time>
      </trkpt>
      <trkpt lat="46.12935" lon="5.72693">
        <ele>1190.7</ele>
        <time>2019-07-10T23:09:19Z</time>
      </trkpt>
      <trkpt lat="46.12936" lon="5.72721">
        <ele>1194.9</ele>
        <time>2019-07-10T23:09:19Z</time>
      </trkpt>
      <trkpt lat="46.1291" lon="5.72765">
        <ele>1198.9</ele>
        <time>2019-07-10T23:09:19Z</time>
      </trkpt>
      <trkpt lat="46.12893" lon="5.7281">
        <ele>1204.2</ele>
        <time>2019-07-10T23:09:19Z</time>
      </trkpt>
      <trkpt lat="46.12865" lon="5.72875">
        <ele>1209.7</ele>
        <time>2019-07-10T23:09:19Z</time>
      </trkpt>
      <trkpt lat="46.12852" lon="5.729">
        <ele>1212.5</ele>
        <time>2019-07-10T23:09:19Z</time>
      </trkpt>
      <trkpt lat="46.12811" lon="5.7292">
        <ele>1215.9</ele>
        <time>2019-07-10T23:09:19Z</time>
      </trkpt>
      <trkpt lat="46.12768" lon="5.72922">
        <ele>1213.6</ele>
        <time>2019-07-10T23:09:19Z</time>
      </trkpt>
      <trkpt lat="46.1273" lon="5.72966">
        <ele>1215.1</ele>
        <time>2019-07-10T23:09:19Z</time>
      </trkpt>
      <trkpt lat="46.12693" lon="5.73029">
        <ele>1212.9</ele>
        <time>2019-07-10T23:09:19Z</time>
      </trkpt>
      <trkpt lat="46.12677" lon="5.73098">
        <ele>1212.1</ele>
        <time>2019-07-10T23:09:19Z</time>
      </trkpt>
      <trkpt lat="46.1269" lon="5.73136">
        <ele>1213.5</ele>
        <time>2019-07-10T23:09:19Z</time>
      </trkpt>
      <trkpt lat="46.127" lon="5.73191">
        <ele>1213.3</ele>
        <time>2019-07-10T23:09:19Z</time>
      </trkpt>
      <trkpt lat="46.12703" lon="5.73194">
        <ele>1213.9</ele>
        <time>2019-07-10T23:09:19Z</time>
      </trkpt>
      <trkpt lat="46.12703" lon="5.73194">
        <ele>1213.9</ele>
        <time>2019-07-10T23:09:19Z</time>
      </trkpt>
      <trkpt lat="46.127" lon="5.73191">
        <ele>1213.3</ele>
        <time>2019-07-10T23:09:19Z</time>
      </trkpt>
      <trkpt lat="46.12692" lon="5.73261">
        <ele>1210.2</ele>
        <time>2019-07-10T23:09:19Z</time>
      </trkpt>
      <trkpt lat="46.1269" lon="5.73323">
        <ele>1210.2</ele>
        <time>2019-07-10T23:09:19Z</time>
      </trkpt>
      <trkpt lat="46.12692" lon="5.73367">
        <ele>1210.3</ele>
        <time>2019-07-10T23:09:19Z</time>
      </trkpt>
      <trkpt lat="46.12695" lon="5.73433">
        <ele>1207</ele>
        <time>2019-07-10T23:09:19Z</time>
      </trkpt>
      <trkpt lat="46.12684" lon="5.73479">
        <ele>1209</ele>
        <time>2019-07-10T23:09:19Z</time>
      </trkpt>
      <trkpt lat="46.12694" lon="5.73517">
        <ele>1212.5</ele>
        <time>2019-07-10T23:09:19Z</time>
      </trkpt>
      <trkpt lat="46.12767" lon="5.73549">
        <ele>1208.3</ele>
        <time>2019-07-10T23:09:19Z</time>
      </trkpt>
      <trkpt lat="46.12779" lon="5.73575">
        <ele>1209.8</ele>
        <time>2019-07-10T23:09:19Z</time>
      </trkpt>
      <trkpt lat="46.12791" lon="5.73598">
        <ele>1210.1</ele>
        <time>2019-07-10T23:09:19Z</time>
      </trkpt>
      <trkpt lat="46.12833" lon="5.73631">
        <ele>1206.3</ele>
        <time>2019-07-10T23:09:19Z</time>
      </trkpt>
      <trkpt lat="46.12877" lon="5.73651">
        <ele>1200.1</ele>
        <time>2019-07-10T23:09:19Z</time>
      </trkpt>
      <trkpt lat="46.12907" lon="5.73737">
        <ele>1197.2</ele>
        <time>2019-07-10T23:09:19Z</time>
      </trkpt>
      <trkpt lat="46.12908" lon="5.73752">
        <ele>1197.7</ele>
        <time>2019-07-10T23:09:19Z</time>
      </trkpt>
      <trkpt lat="46.12908" lon="5.73752">
        <ele>1197.7</ele>
        <time>2019-07-10T23:09:19Z</time>
      </trkpt>
      <trkpt lat="46.12909" lon="5.73769">
        <ele>1198.2</ele>
        <time>2019-07-10T23:09:19Z</time>
      </trkpt>
      <trkpt lat="46.12902" lon="5.73784">
        <ele>1198.3</ele>
        <time>2019-07-10T23:09:19Z</time>
      </trkpt>
      <trkpt lat="46.12876" lon="5.73786">
        <ele>1197.9</ele>
        <time>2019-07-10T23:09:19Z</time>
      </trkpt>
      <trkpt lat="46.12871" lon="5.7379">
        <ele>1197.1</ele>
        <time>2019-07-10T23:09:19Z</time>
      </trkpt>
      <trkpt lat="46.12867" lon="5.73784">
        <ele>1197.7</ele>
        <time>2019-07-10T23:09:19Z</time>
      </trkpt>
      <trkpt lat="46.12862" lon="5.7378">
        <ele>1197.8</ele>
        <time>2019-07-10T23:09:19Z</time>
      </trkpt>
      <trkpt lat="46.12857" lon="5.73777">
        <ele>1197.9</ele>
        <time>2019-07-10T23:09:19Z</time>
      </trkpt>
      <trkpt lat="46.12841" lon="5.73771">
        <ele>1197.3</ele>
        <time>2019-07-10T23:09:19Z</time>
      </trkpt>
      <trkpt lat="46.12793" lon="5.73735">
        <ele>1195.7</ele>
        <time>2019-07-10T23:09:19Z</time>
      </trkpt>
      <trkpt lat="46.12714" lon="5.73654">
        <ele>1196.4</ele>
        <time>2019-07-10T23:09:19Z</time>
      </trkpt>
      <trkpt lat="46.12655" lon="5.73624">
        <ele>1196.9</ele>
        <time>2019-07-10T23:09:19Z</time>
      </trkpt>
      <trkpt lat="46.12625" lon="5.73611">
        <ele>1197.5</ele>
        <time>2019-07-10T23:09:19Z</time>
      </trkpt>
      <trkpt lat="46.12565" lon="5.7359">
        <ele>1198.4</ele>
        <time>2019-07-10T23:09:19Z</time>
      </trkpt>
      <trkpt lat="46.12528" lon="5.7358">
        <ele>1202.2</ele>
        <time>2019-07-10T23:09:19Z</time>
      </trkpt>
      <trkpt lat="46.12457" lon="5.73571">
        <ele>1202.6</ele>
        <time>2019-07-10T23:09:19Z</time>
      </trkpt>
      <trkpt lat="46.12419" lon="5.73564">
        <ele>1204.7</ele>
        <time>2019-07-10T23:09:19Z</time>
      </trkpt>
      <trkpt lat="46.12401" lon="5.73571">
        <ele>1204.4</ele>
        <time>2019-07-10T23:09:19Z</time>
      </trkpt>
      <trkpt lat="46.12362" lon="5.73575">
        <ele>1204.6</ele>
        <time>2019-07-10T23:09:19Z</time>
      </trkpt>
      <trkpt lat="46.12336" lon="5.7357">
        <ele>1206.3</ele>
        <time>2019-07-10T23:09:19Z</time>
      </trkpt>
      <trkpt lat="46.12247" lon="5.73542">
        <ele>1210.4</ele>
        <time>2019-07-10T23:09:19Z</time>
      </trkpt>
      <trkpt lat="46.12183" lon="5.73529">
        <ele>1207.2</ele>
        <time>2019-07-10T23:09:19Z</time>
      </trkpt>
      <trkpt lat="46.12125" lon="5.73512">
        <ele>1203.1</ele>
        <time>2019-07-10T23:09:19Z</time>
      </trkpt>
      <trkpt lat="46.11981" lon="5.73499">
        <ele>1185.7</ele>
        <time>2019-07-10T23:09:19Z</time>
      </trkpt>
      <trkpt lat="46.11955" lon="5.73503">
        <ele>1181.3</ele>
        <time>2019-07-10T23:09:19Z</time>
      </trkpt>
      <trkpt lat="46.11913" lon="5.73505">
        <ele>1175.2</ele>
        <time>2019-07-10T23:09:19Z</time>
      </trkpt>
      <trkpt lat="46.11853" lon="5.73511">
        <ele>1169.3</ele>
        <time>2019-07-10T23:09:19Z</time>
      </trkpt>
      <trkpt lat="46.11778" lon="5.73546">
        <ele>1159.7</ele>
        <time>2019-07-10T23:09:19Z</time>
      </trkpt>
      <trkpt lat="46.11698" lon="5.73506">
        <ele>1158.2</ele>
        <time>2019-07-10T23:09:19Z</time>
      </trkpt>
      <trkpt lat="46.11665" lon="5.73477">
        <ele>1160.7</ele>
        <time>2019-07-10T23:09:19Z</time>
      </trkpt>
      <trkpt lat="46.11636" lon="5.73455">
        <ele>1164.2</ele>
        <time>2019-07-10T23:09:19Z</time>
      </trkpt>
      <trkpt lat="46.11598" lon="5.73437">
        <ele>1169.7</ele>
        <time>2019-07-10T23:09:19Z</time>
      </trkpt>
      <trkpt lat="46.1158" lon="5.73421">
        <ele>1172.3</ele>
        <time>2019-07-10T23:09:19Z</time>
      </trkpt>
      <trkpt lat="46.11564" lon="5.73418">
        <ele>1174.7</ele>
        <time>2019-07-10T23:09:19Z</time>
      </trkpt>
      <trkpt lat="46.11524" lon="5.73444">
        <ele>1177.2</ele>
        <time>2019-07-10T23:09:19Z</time>
      </trkpt>
      <trkpt lat="46.11493" lon="5.73455">
        <ele>1177.1</ele>
        <time>2019-07-10T23:09:19Z</time>
      </trkpt>
      <trkpt lat="46.11465" lon="5.73447">
        <ele>1177.2</ele>
        <time>2019-07-10T23:09:19Z</time>
      </trkpt>
      <trkpt lat="46.11418" lon="5.73445">
        <ele>1178</ele>
        <time>2019-07-10T23:09:19Z</time>
      </trkpt>
      <trkpt lat="46.11345" lon="5.73399">
        <ele>1175.9</ele>
        <time>2019-07-10T23:09:19Z</time>
      </trkpt>
      <trkpt lat="46.11302" lon="5.73386">
        <ele>1174</ele>
        <time>2019-07-10T23:09:19Z</time>
      </trkpt>
      <trkpt lat="46.11258" lon="5.73368">
        <ele>1172.3</ele>
        <time>2019-07-10T23:09:19Z</time>
      </trkpt>
      <trkpt lat="46.11258" lon="5.73368">
        <ele>1172.3</ele>
        <time>2019-07-10T23:09:19Z</time>
      </trkpt>
      <trkpt lat="46.11258" lon="5.73368">
        <ele>1172.3</ele>
        <time>2019-07-10T23:09:19Z</time>
      </trkpt>
      <trkpt lat="46.1122" lon="5.73368">
        <ele>1171.2</ele>
        <time>2019-07-10T23:09:19Z</time>
      </trkpt>
      <trkpt lat="46.11182" lon="5.73364">
        <ele>1171</ele>
        <time>2019-07-10T23:09:19Z</time>
      </trkpt>
      <trkpt lat="46.11152" lon="5.7336">
        <ele>1171</ele>
        <time>2019-07-10T23:09:19Z</time>
      </trkpt>
      <trkpt lat="46.11137" lon="5.7343">
        <ele>1170.7</ele>
        <time>2019-07-10T23:09:19Z</time>
      </trkpt>
      <trkpt lat="46.11136" lon="5.7345">
        <ele>1170.2</ele>
        <time>2019-07-10T23:09:19Z</time>
      </trkpt>
      <trkpt lat="46.11136" lon="5.73466">
        <ele>1170</ele>
        <time>2019-07-10T23:09:19Z</time>
      </trkpt>
      <trkpt lat="46.11138" lon="5.7348">
        <ele>1169.7</ele>
        <time>2019-07-10T23:09:19Z</time>
      </trkpt>
      <trkpt lat="46.11156" lon="5.73554">
        <ele>1169</ele>
        <time>2019-07-10T23:09:19Z</time>
      </trkpt>
      <trkpt lat="46.11111" lon="5.73552">
        <ele>1168.1</ele>
        <time>2019-07-10T23:09:19Z</time>
      </trkpt>
      <trkpt lat="46.11107" lon="5.73553">
        <ele>1168.1</ele>
        <time>2019-07-10T23:09:19Z</time>
      </trkpt>
      <trkpt lat="46.11079" lon="5.73551">
        <ele>1168</ele>
        <time>2019-07-10T23:09:19Z</time>
      </trkpt>
      <trkpt lat="46.11047" lon="5.73545">
        <ele>1167.4</ele>
        <time>2019-07-10T23:09:19Z</time>
      </trkpt>
      <trkpt lat="46.10993" lon="5.73547">
        <ele>1169.1</ele>
        <time>2019-07-10T23:09:19Z</time>
      </trkpt>
      <trkpt lat="46.10982" lon="5.73542">
        <ele>1169.7</ele>
        <time>2019-07-10T23:09:19Z</time>
      </trkpt>
      <trkpt lat="46.1096" lon="5.73526">
        <ele>1169.5</ele>
        <time>2019-07-10T23:09:19Z</time>
      </trkpt>
      <trkpt lat="46.1094" lon="5.73515">
        <ele>1169.7</ele>
        <time>2019-07-10T23:09:19Z</time>
      </trkpt>
      <trkpt lat="46.10877" lon="5.73489">
        <ele>1170.5</ele>
        <time>2019-07-10T23:09:19Z</time>
      </trkpt>
      <trkpt lat="46.1085" lon="5.73475">
        <ele>1171.9</ele>
        <time>2019-07-10T23:09:19Z</time>
      </trkpt>
      <trkpt lat="46.1076" lon="5.7345">
        <ele>1178.8</ele>
        <time>2019-07-10T23:09:19Z</time>
      </trkpt>
      <trkpt lat="46.1075" lon="5.73452">
        <ele>1180.3</ele>
        <time>2019-07-10T23:09:19Z</time>
      </trkpt>
      <trkpt lat="46.10744" lon="5.73456">
        <ele>1180.8</ele>
        <time>2019-07-10T23:09:19Z</time>
      </trkpt>
      <trkpt lat="46.10739" lon="5.73464">
        <ele>1181.5</ele>
        <time>2019-07-10T23:09:19Z</time>
      </trkpt>
      <trkpt lat="46.10734" lon="5.73532">
        <ele>1181.8</ele>
        <time>2019-07-10T23:09:19Z</time>
      </trkpt>
      <trkpt lat="46.10737" lon="5.73549">
        <ele>1184.3</ele>
        <time>2019-07-10T23:09:19Z</time>
      </trkpt>
      <trkpt lat="46.10778" lon="5.73595">
        <ele>1187.1</ele>
        <time>2019-07-10T23:09:19Z</time>
      </trkpt>
      <trkpt lat="46.1078" lon="5.73615">
        <ele>1190</ele>
        <time>2019-07-10T23:09:19Z</time>
      </trkpt>
      <trkpt lat="46.10783" lon="5.73632">
        <ele>1190.4</ele>
        <time>2019-07-10T23:09:19Z</time>
      </trkpt>
      <trkpt lat="46.10785" lon="5.73643">
        <ele>1190.8</ele>
        <time>2019-07-10T23:09:19Z</time>
      </trkpt>
      <trkpt lat="46.1081" lon="5.73678">
        <ele>1192</ele>
        <time>2019-07-10T23:09:19Z</time>
      </trkpt>
      <trkpt lat="46.1085" lon="5.73717">
        <ele>1195.8</ele>
        <time>2019-07-10T23:09:19Z</time>
      </trkpt>
      <trkpt lat="46.10865" lon="5.73734">
        <ele>1196.8</ele>
        <time>2019-07-10T23:09:19Z</time>
      </trkpt>
      <trkpt lat="46.10872" lon="5.73744">
        <ele>1197.3</ele>
        <time>2019-07-10T23:09:19Z</time>
      </trkpt>
      <trkpt lat="46.10872" lon="5.73755">
        <ele>1198.3</ele>
        <time>2019-07-10T23:09:19Z</time>
      </trkpt>
      <trkpt lat="46.10871" lon="5.73757">
        <ele>1198.6</ele>
        <time>2019-07-10T23:09:19Z</time>
      </trkpt>
      <trkpt lat="46.10871" lon="5.73757">
        <ele>1198.6</ele>
        <time>2019-07-10T23:09:19Z</time>
      </trkpt>
      <trkpt lat="46.10862" lon="5.73769">
        <ele>1200.7</ele>
        <time>2019-07-10T23:09:19Z</time>
      </trkpt>
      <trkpt lat="46.10853" lon="5.73771">
        <ele>1201.5</ele>
        <time>2019-07-10T23:09:19Z</time>
      </trkpt>
      <trkpt lat="46.10799" lon="5.73768">
        <ele>1203.4</ele>
        <time>2019-07-10T23:09:19Z</time>
      </trkpt>
      <trkpt lat="46.10774" lon="5.73793">
        <ele>1206.3</ele>
        <time>2019-07-10T23:09:19Z</time>
      </trkpt>
      <trkpt lat="46.10756" lon="5.73822">
        <ele>1205.8</ele>
        <time>2019-07-10T23:09:19Z</time>
      </trkpt>
      <trkpt lat="46.10739" lon="5.73834">
        <ele>1201.8</ele>
        <time>2019-07-10T23:09:19Z</time>
      </trkpt>
      <trkpt lat="46.10716" lon="5.73843">
        <ele>1201.2</ele>
        <time>2019-07-10T23:09:19Z</time>
      </trkpt>
      <trkpt lat="46.10691" lon="5.73848">
        <ele>1203.6</ele>
        <time>2019-07-10T23:09:19Z</time>
      </trkpt>
      <trkpt lat="46.10659" lon="5.73864">
        <ele>1204.4</ele>
        <time>2019-07-10T23:09:19Z</time>
      </trkpt>
      <trkpt lat="46.10576" lon="5.73881">
        <ele>1212.7</ele>
        <time>2019-07-10T23:09:19Z</time>
      </trkpt>
      <trkpt lat="46.10556" lon="5.73895">
        <ele>1215.4</ele>
        <time>2019-07-10T23:09:19Z</time>
      </trkpt>
      <trkpt lat="46.10513" lon="5.73942">
        <ele>1217.1</ele>
        <time>2019-07-10T23:09:19Z</time>
      </trkpt>
      <trkpt lat="46.10506" lon="5.73943">
        <ele>1217.1</ele>
        <time>2019-07-10T23:09:19Z</time>
      </trkpt>
      <trkpt lat="46.10499" lon="5.73941">
        <ele>1217.1</ele>
        <time>2019-07-10T23:09:19Z</time>
      </trkpt>
      <trkpt lat="46.10433" lon="5.73918">
        <ele>1216.9</ele>
        <time>2019-07-10T23:09:19Z</time>
      </trkpt>
      <trkpt lat="46.10345" lon="5.73867">
        <ele>1220</ele>
        <time>2019-07-10T23:09:19Z</time>
      </trkpt>
      <trkpt lat="46.10221" lon="5.73819">
        <ele>1229.2</ele>
        <time>2019-07-10T23:09:19Z</time>
      </trkpt>
      <trkpt lat="46.10209" lon="5.73817">
        <ele>1230.2</ele>
        <time>2019-07-10T23:09:19Z</time>
      </trkpt>
      <trkpt lat="46.10194" lon="5.73817">
        <ele>1231.2</ele>
        <time>2019-07-10T23:09:19Z</time>
      </trkpt>
      <trkpt lat="46.10188" lon="5.73815">
        <ele>1231.2</ele>
        <time>2019-07-10T23:09:19Z</time>
      </trkpt>
      <trkpt lat="46.10174" lon="5.73806">
        <ele>1231.3</ele>
        <time>2019-07-10T23:09:19Z</time>
      </trkpt>
      <trkpt lat="46.10137" lon="5.73762">
        <ele>1233.5</ele>
        <time>2019-07-10T23:09:19Z</time>
      </trkpt>
      <trkpt lat="46.10088" lon="5.73737">
        <ele>1233.1</ele>
        <time>2019-07-10T23:09:19Z</time>
      </trkpt>
      <trkpt lat="46.10029" lon="5.73712">
        <ele>1233.8</ele>
        <time>2019-07-10T23:09:19Z</time>
      </trkpt>
      <trkpt lat="46.09952" lon="5.73674">
        <ele>1233.8</ele>
        <time>2019-07-10T23:09:19Z</time>
      </trkpt>
      <trkpt lat="46.09917" lon="5.73661">
        <ele>1232.4</ele>
        <time>2019-07-10T23:09:19Z</time>
      </trkpt>
      <trkpt lat="46.09883" lon="5.73634">
        <ele>1231.7</ele>
        <time>2019-07-10T23:09:19Z</time>
      </trkpt>
      <trkpt lat="46.09869" lon="5.73628">
        <ele>1232.3</ele>
        <time>2019-07-10T23:09:19Z</time>
      </trkpt>
      <trkpt lat="46.09837" lon="5.73627">
        <ele>1232.8</ele>
        <time>2019-07-10T23:09:19Z</time>
      </trkpt>
      <trkpt lat="46.09809" lon="5.73624">
        <ele>1233.4</ele>
        <time>2019-07-10T23:09:19Z</time>
      </trkpt>
      <trkpt lat="46.0979" lon="5.73619">
        <ele>1234.5</ele>
        <time>2019-07-10T23:09:19Z</time>
      </trkpt>
      <trkpt lat="46.0979" lon="5.73619">
        <ele>1234.5</ele>
        <time>2019-07-10T23:09:19Z</time>
      </trkpt>
      <trkpt lat="46.09756" lon="5.73611">
        <ele>1235.8</ele>
        <time>2019-07-10T23:09:19Z</time>
      </trkpt>
      <trkpt lat="46.0971" lon="5.73592">
        <ele>1236</ele>
        <time>2019-07-10T23:09:19Z</time>
      </trkpt>
      <trkpt lat="46.09676" lon="5.73569">
        <ele>1235</ele>
        <time>2019-07-10T23:09:19Z</time>
      </trkpt>
      <trkpt lat="46.09634" lon="5.73551">
        <ele>1234.4</ele>
        <time>2019-07-10T23:09:19Z</time>
      </trkpt>
      <trkpt lat="46.09612" lon="5.73532">
        <ele>1234.2</ele>
        <time>2019-07-10T23:09:19Z</time>
      </trkpt>
      <trkpt lat="46.09587" lon="5.73505">
        <ele>1235.1</ele>
        <time>2019-07-10T23:09:19Z</time>
      </trkpt>
      <trkpt lat="46.09537" lon="5.73468">
        <ele>1238.7</ele>
        <time>2019-07-10T23:09:19Z</time>
      </trkpt>
      <trkpt lat="46.09519" lon="5.7346">
        <ele>1239.6</ele>
        <time>2019-07-10T23:09:19Z</time>
      </trkpt>
      <trkpt lat="46.09498" lon="5.73455">
        <ele>1240.3</ele>
        <time>2019-07-10T23:09:19Z</time>
      </trkpt>
      <trkpt lat="46.09434" lon="5.73418">
        <ele>1243.9</ele>
        <time>2019-07-10T23:09:19Z</time>
      </trkpt>
      <trkpt lat="46.09409" lon="5.734">
        <ele>1244.6</ele>
        <time>2019-07-10T23:09:19Z</time>
      </trkpt>
      <trkpt lat="46.09368" lon="5.73389">
        <ele>1245</ele>
        <time>2019-07-10T23:09:19Z</time>
      </trkpt>
      <trkpt lat="46.09333" lon="5.73374">
        <ele>1246.6</ele>
        <time>2019-07-10T23:09:19Z</time>
      </trkpt>
      <trkpt lat="46.09257" lon="5.73335">
        <ele>1249.1</ele>
        <time>2019-07-10T23:09:19Z</time>
      </trkpt>
      <trkpt lat="46.09224" lon="5.73325">
        <ele>1248.1</ele>
        <time>2019-07-10T23:09:19Z</time>
      </trkpt>
      <trkpt lat="46.09118" lon="5.73278">
        <ele>1250.3</ele>
        <time>2019-07-10T23:09:19Z</time>
      </trkpt>
      <trkpt lat="46.09033" lon="5.73253">
        <ele>1256.6</ele>
        <time>2019-07-10T23:09:19Z</time>
      </trkpt>
      <trkpt lat="46.08917" lon="5.73225">
        <ele>1260</ele>
        <time>2019-07-10T23:09:19Z</time>
      </trkpt>
      <trkpt lat="46.08813" lon="5.73199">
        <ele>1258</ele>
        <time>2019-07-10T23:09:19Z</time>
      </trkpt>
      <trkpt lat="46.08792" lon="5.73198">
        <ele>1257.4</ele>
        <time>2019-07-10T23:09:19Z</time>
      </trkpt>
      <trkpt lat="46.08772" lon="5.73192">
        <ele>1256.7</ele>
        <time>2019-07-10T23:09:19Z</time>
      </trkpt>
      <trkpt lat="46.08741" lon="5.73183">
        <ele>1255.8</ele>
        <time>2019-07-10T23:09:19Z</time>
      </trkpt>
      <trkpt lat="46.08669" lon="5.73169">
        <ele>1257.8</ele>
        <time>2019-07-10T23:09:19Z</time>
      </trkpt>
      <trkpt lat="46.0863" lon="5.73157">
        <ele>1259.4</ele>
        <time>2019-07-10T23:09:19Z</time>
      </trkpt>
      <trkpt lat="46.08585" lon="5.73148">
        <ele>1261.9</ele>
        <time>2019-07-10T23:09:19Z</time>
      </trkpt>
      <trkpt lat="46.08543" lon="5.73148">
        <ele>1263.5</ele>
        <time>2019-07-10T23:09:19Z</time>
      </trkpt>
      <trkpt lat="46.08478" lon="5.73145">
        <ele>1265.2</ele>
        <time>2019-07-10T23:09:19Z</time>
      </trkpt>
      <trkpt lat="46.0831" lon="5.73155">
        <ele>1268.3</ele>
        <time>2019-07-10T23:09:19Z</time>
      </trkpt>
      <trkpt lat="46.0828" lon="5.73153">
        <ele>1268</ele>
        <time>2019-07-10T23:09:19Z</time>
      </trkpt>
      <trkpt lat="46.0825" lon="5.73148">
        <ele>1266</ele>
        <time>2019-07-10T23:09:19Z</time>
      </trkpt>
      <trkpt lat="46.08226" lon="5.73147">
        <ele>1265.3</ele>
        <time>2019-07-10T23:09:19Z</time>
      </trkpt>
      <trkpt lat="46.0812" lon="5.7316">
        <ele>1262.7</ele>
        <time>2019-07-10T23:09:19Z</time>
      </trkpt>
      <trkpt lat="46.08098" lon="5.73161">
        <ele>1261.8</ele>
        <time>2019-07-10T23:09:19Z</time>
      </trkpt>
      <trkpt lat="46.08078" lon="5.73155">
        <ele>1261.1</ele>
        <time>2019-07-10T23:09:19Z</time>
      </trkpt>
      <trkpt lat="46.08022" lon="5.73125">
        <ele>1258.9</ele>
        <time>2019-07-10T23:09:19Z</time>
      </trkpt>
      <trkpt lat="46.07992" lon="5.73114">
        <ele>1256.8</ele>
        <time>2019-07-10T23:09:19Z</time>
      </trkpt>
      <trkpt lat="46.07899" lon="5.7306">
        <ele>1248.7</ele>
        <time>2019-07-10T23:09:19Z</time>
      </trkpt>
      <trkpt lat="46.07887" lon="5.73048">
        <ele>1248</ele>
        <time>2019-07-10T23:09:19Z</time>
      </trkpt>
      <trkpt lat="46.07877" lon="5.73034">
        <ele>1247</ele>
        <time>2019-07-10T23:09:19Z</time>
      </trkpt>
      <trkpt lat="46.07855" lon="5.72958">
        <ele>1245.9</ele>
        <time>2019-07-10T23:09:19Z</time>
      </trkpt>
      <trkpt lat="46.07845" lon="5.72934">
        <ele>1245.5</ele>
        <time>2019-07-10T23:09:19Z</time>
      </trkpt>
      <trkpt lat="46.07832" lon="5.72916">
        <ele>1244.8</ele>
        <time>2019-07-10T23:09:19Z</time>
      </trkpt>
      <trkpt lat="46.07816" lon="5.729">
        <ele>1242.7</ele>
        <time>2019-07-10T23:09:19Z</time>
      </trkpt>
      <trkpt lat="46.07763" lon="5.72862">
        <ele>1237.9</ele>
        <time>2019-07-10T23:09:19Z</time>
      </trkpt>
      <trkpt lat="46.07676" lon="5.72837">
        <ele>1233.9</ele>
        <time>2019-07-10T23:09:19Z</time>
      </trkpt>
      <trkpt lat="46.0766" lon="5.72837">
        <ele>1233.9</ele>
        <time>2019-07-10T23:09:19Z</time>
      </trkpt>
      <trkpt lat="46.07653" lon="5.72799">
        <ele>1233.5</ele>
        <time>2019-07-10T23:09:19Z</time>
      </trkpt>
      <trkpt lat="46.07646" lon="5.72795">
        <ele>1233.7</ele>
        <time>2019-07-10T23:09:19Z</time>
      </trkpt>
      <trkpt lat="46.07646" lon="5.72795">
        <ele>1233.7</ele>
        <time>2019-07-10T23:09:19Z</time>
      </trkpt>
      <trkpt lat="46.07653" lon="5.72799">
        <ele>1233.5</ele>
        <time>2019-07-10T23:09:19Z</time>
      </trkpt>
      <trkpt lat="46.07664" lon="5.72661">
        <ele>1226.1</ele>
        <time>2019-07-10T23:09:19Z</time>
      </trkpt>
      <trkpt lat="46.07663" lon="5.72556">
        <ele>1231.9</ele>
        <time>2019-07-10T23:09:19Z</time>
      </trkpt>
      <trkpt lat="46.07651" lon="5.72525">
        <ele>1238.3</ele>
        <time>2019-07-10T23:09:19Z</time>
      </trkpt>
      <trkpt lat="46.07649" lon="5.72495">
        <ele>1236.2</ele>
        <time>2019-07-10T23:09:19Z</time>
      </trkpt>
      <trkpt lat="46.07652" lon="5.72479">
        <ele>1233.6</ele>
        <time>2019-07-10T23:09:19Z</time>
      </trkpt>
      <trkpt lat="46.07647" lon="5.72456">
        <ele>1230.4</ele>
        <time>2019-07-10T23:09:19Z</time>
      </trkpt>
      <trkpt lat="46.07465" lon="5.72211">
        <ele>1223.2</ele>
        <time>2019-07-10T23:09:19Z</time>
      </trkpt>
      <trkpt lat="46.07445" lon="5.72122">
        <ele>1225.7</ele>
        <time>2019-07-10T23:09:19Z</time>
      </trkpt>
      <trkpt lat="46.07446" lon="5.72082">
        <ele>1228.2</ele>
        <time>2019-07-10T23:09:19Z</time>
      </trkpt>
      <trkpt lat="46.07438" lon="5.72037">
        <ele>1226.9</ele>
        <time>2019-07-10T23:09:19Z</time>
      </trkpt>
      <trkpt lat="46.07439" lon="5.71926">
        <ele>1227.9</ele>
        <time>2019-07-10T23:09:19Z</time>
      </trkpt>
      <trkpt lat="46.07417" lon="5.71861">
        <ele>1228</ele>
        <time>2019-07-10T23:09:19Z</time>
      </trkpt>
      <trkpt lat="46.07405" lon="5.71816">
        <ele>1229.8</ele>
        <time>2019-07-10T23:09:19Z</time>
      </trkpt>
      <trkpt lat="46.07383" lon="5.71821">
        <ele>1229.7</ele>
        <time>2019-07-10T23:09:19Z</time>
      </trkpt>
      <trkpt lat="46.07309" lon="5.71839">
        <ele>1229.9</ele>
        <time>2019-07-10T23:09:19Z</time>
      </trkpt>
      <trkpt lat="46.07287" lon="5.71842">
        <ele>1230.7</ele>
        <time>2019-07-10T23:09:19Z</time>
      </trkpt>
      <trkpt lat="46.07261" lon="5.71843">
        <ele>1232</ele>
        <time>2019-07-10T23:09:19Z</time>
      </trkpt>
      <trkpt lat="46.07234" lon="5.71838">
        <ele>1233.5</ele>
        <time>2019-07-10T23:09:19Z</time>
      </trkpt>
      <trkpt lat="46.07211" lon="5.7183">
        <ele>1235.3</ele>
        <time>2019-07-10T23:09:19Z</time>
      </trkpt>
      <trkpt lat="46.07159" lon="5.71827">
        <ele>1239</ele>
        <time>2019-07-10T23:09:19Z</time>
      </trkpt>
      <trkpt lat="46.07143" lon="5.71829">
        <ele>1238.3</ele>
        <time>2019-07-10T23:09:19Z</time>
      </trkpt>
      <trkpt lat="46.07132" lon="5.71824">
        <ele>1238.3</ele>
        <time>2019-07-10T23:09:19Z</time>
      </trkpt>
      <trkpt lat="46.07116" lon="5.71812">
        <ele>1238.1</ele>
        <time>2019-07-10T23:09:19Z</time>
      </trkpt>
      <trkpt lat="46.07099" lon="5.71787">
        <ele>1238.9</ele>
        <time>2019-07-10T23:09:19Z</time>
      </trkpt>
      <trkpt lat="46.07079" lon="5.71779">
        <ele>1240.3</ele>
        <time>2019-07-10T23:09:19Z</time>
      </trkpt>
      <trkpt lat="46.07011" lon="5.71779">
        <ele>1243</ele>
        <time>2019-07-10T23:09:19Z</time>
      </trkpt>
      <trkpt lat="46.06904" lon="5.71749">
        <ele>1245.5</ele>
        <time>2019-07-10T23:09:19Z</time>
      </trkpt>
      <trkpt lat="46.069" lon="5.71745">
        <ele>1245.6</ele>
        <time>2019-07-10T23:09:19Z</time>
      </trkpt>
      <trkpt lat="46.06879" lon="5.71743">
        <ele>1246.5</ele>
        <time>2019-07-10T23:09:19Z</time>
      </trkpt>
      <trkpt lat="46.06867" lon="5.71742">
        <ele>1246.8</ele>
        <time>2019-07-10T23:09:19Z</time>
      </trkpt>
      <trkpt lat="46.06867" lon="5.71742">
        <ele>1246.8</ele>
        <time>2019-07-10T23:09:19Z</time>
      </trkpt>
      <trkpt lat="46.06847" lon="5.71738">
        <ele>1246.5</ele>
        <time>2019-07-10T23:09:19Z</time>
      </trkpt>
      <trkpt lat="46.06818" lon="5.71722">
        <ele>1245.5</ele>
        <time>2019-07-10T23:09:19Z</time>
      </trkpt>
      <trkpt lat="46.06783" lon="5.71704">
        <ele>1243.4</ele>
        <time>2019-07-10T23:09:19Z</time>
      </trkpt>
      <trkpt lat="46.06737" lon="5.71706">
        <ele>1241.2</ele>
        <time>2019-07-10T23:09:19Z</time>
      </trkpt>
      <trkpt lat="46.06718" lon="5.71698">
        <ele>1240.9</ele>
        <time>2019-07-10T23:09:19Z</time>
      </trkpt>
      <trkpt lat="46.06705" lon="5.71686">
        <ele>1240.4</ele>
        <time>2019-07-10T23:09:19Z</time>
      </trkpt>
      <trkpt lat="46.06644" lon="5.71697">
        <ele>1239.9</ele>
        <time>2019-07-10T23:09:19Z</time>
      </trkpt>
      <trkpt lat="46.06493" lon="5.71813">
        <ele>1245.3</ele>
        <time>2019-07-10T23:09:19Z</time>
      </trkpt>
      <trkpt lat="46.06431" lon="5.71846">
        <ele>1252.7</ele>
        <time>2019-07-10T23:09:19Z</time>
      </trkpt>
      <trkpt lat="46.06374" lon="5.7189">
        <ele>1258.5</ele>
        <time>2019-07-10T23:09:19Z</time>
      </trkpt>
      <trkpt lat="46.06315" lon="5.71984">
        <ele>1259.5</ele>
        <time>2019-07-10T23:09:19Z</time>
      </trkpt>
      <trkpt lat="46.06277" lon="5.72035">
        <ele>1260.2</ele>
        <time>2019-07-10T23:09:19Z</time>
      </trkpt>
      <trkpt lat="46.06209" lon="5.72058">
        <ele>1262.2</ele>
        <time>2019-07-10T23:09:19Z</time>
      </trkpt>
      <trkpt lat="46.0616" lon="5.72084">
        <ele>1265.8</ele>
        <time>2019-07-10T23:09:19Z</time>
      </trkpt>
      <trkpt lat="46.06134" lon="5.72079">
        <ele>1264.9</ele>
        <time>2019-07-10T23:09:19Z</time>
      </trkpt>
      <trkpt lat="46.06089" lon="5.72051">
        <ele>1263.3</ele>
        <time>2019-07-10T23:09:19Z</time>
      </trkpt>
      <trkpt lat="46.06075" lon="5.72043">
        <ele>1262.2</ele>
        <time>2019-07-10T23:09:19Z</time>
      </trkpt>
      <trkpt lat="46.06053" lon="5.72048">
        <ele>1260.8</ele>
        <time>2019-07-10T23:09:19Z</time>
      </trkpt>
      <trkpt lat="46.06026" lon="5.72087">
        <ele>1257.8</ele>
        <time>2019-07-10T23:09:19Z</time>
      </trkpt>
      <trkpt lat="46.05988" lon="5.72109">
        <ele>1253.6</ele>
        <time>2019-07-10T23:09:19Z</time>
      </trkpt>
      <trkpt lat="46.05956" lon="5.721">
        <ele>1250.3</ele>
        <time>2019-07-10T23:09:19Z</time>
      </trkpt>
      <trkpt lat="46.05906" lon="5.72062">
        <ele>1242.9</ele>
        <time>2019-07-10T23:09:19Z</time>
      </trkpt>
      <trkpt lat="46.05832" lon="5.72019">
        <ele>1236.9</ele>
        <time>2019-07-10T23:09:19Z</time>
      </trkpt>
      <trkpt lat="46.0573" lon="5.71999">
        <ele>1233</ele>
        <time>2019-07-10T23:09:19Z</time>
      </trkpt>
      <trkpt lat="46.0573" lon="5.72">
        <ele>1233</ele>
        <time>2019-07-10T23:09:19Z</time>
      </trkpt>
      <trkpt lat="46.05697" lon="5.71976">
        <ele>1232.8</ele>
        <time>2019-07-10T23:09:19Z</time>
      </trkpt>
      <trkpt lat="46.05643" lon="5.71931">
        <ele>1234.3</ele>
        <time>2019-07-10T23:09:19Z</time>
      </trkpt>
      <trkpt lat="46.0561" lon="5.7194">
        <ele>1234.8</ele>
        <time>2019-07-10T23:09:19Z</time>
      </trkpt>
      <trkpt lat="46.05582" lon="5.71927">
        <ele>1232.9</ele>
        <time>2019-07-10T23:09:19Z</time>
      </trkpt>
      <trkpt lat="46.05563" lon="5.71906">
        <ele>1231.3</ele>
        <time>2019-07-10T23:09:19Z</time>
      </trkpt>
      <trkpt lat="46.05547" lon="5.71863">
        <ele>1227.8</ele>
        <time>2019-07-10T23:09:19Z</time>
      </trkpt>
      <trkpt lat="46.05536" lon="5.71797">
        <ele>1223.9</ele>
        <time>2019-07-10T23:09:19Z</time>
      </trkpt>
      <trkpt lat="46.05533" lon="5.71754">
        <ele>1223</ele>
        <time>2019-07-10T23:09:19Z</time>
      </trkpt>
      <trkpt lat="46.05521" lon="5.71696">
        <ele>1222.1</ele>
        <time>2019-07-10T23:09:19Z</time>
      </trkpt>
      <trkpt lat="46.05516" lon="5.71686">
        <ele>1221.3</ele>
        <time>2019-07-10T23:09:19Z</time>
      </trkpt>
      <trkpt lat="46.05495" lon="5.71692">
        <ele>1221.1</ele>
        <time>2019-07-10T23:09:19Z</time>
      </trkpt>
      <trkpt lat="46.05461" lon="5.71707">
        <ele>1219.3</ele>
        <time>2019-07-10T23:09:19Z</time>
      </trkpt>
      <trkpt lat="46.05455" lon="5.71702">
        <ele>1217.8</ele>
        <time>2019-07-10T23:09:19Z</time>
      </trkpt>
      <trkpt lat="46.05454" lon="5.71664">
        <ele>1209.8</ele>
        <time>2019-07-10T23:09:19Z</time>
      </trkpt>
      <trkpt lat="46.05455" lon="5.71639">
        <ele>1207.2</ele>
        <time>2019-07-10T23:09:19Z</time>
      </trkpt>
      <trkpt lat="46.05467" lon="5.71613">
        <ele>1206.9</ele>
        <time>2019-07-10T23:09:19Z</time>
      </trkpt>
      <trkpt lat="46.05487" lon="5.71584">
        <ele>1206.6</ele>
        <time>2019-07-10T23:09:19Z</time>
      </trkpt>
      <trkpt lat="46.05491" lon="5.71555">
        <ele>1203.6</ele>
        <time>2019-07-10T23:09:19Z</time>
      </trkpt>
      <trkpt lat="46.05489" lon="5.71536">
        <ele>1201.5</ele>
        <time>2019-07-10T23:09:19Z</time>
      </trkpt>
      <trkpt lat="46.05469" lon="5.7145">
        <ele>1197.2</ele>
        <time>2019-07-10T23:09:19Z</time>
      </trkpt>
      <trkpt lat="46.05451" lon="5.71389">
        <ele>1191.5</ele>
        <time>2019-07-10T23:09:19Z</time>
      </trkpt>
      <trkpt lat="46.05431" lon="5.71359">
        <ele>1187.4</ele>
        <time>2019-07-10T23:09:19Z</time>
      </trkpt>
      <trkpt lat="46.05405" lon="5.71342">
        <ele>1184.1</ele>
        <time>2019-07-10T23:09:19Z</time>
      </trkpt>
      <trkpt lat="46.05389" lon="5.71343">
        <ele>1182.4</ele>
        <time>2019-07-10T23:09:19Z</time>
      </trkpt>
      <trkpt lat="46.05368" lon="5.71364">
        <ele>1179.4</ele>
        <time>2019-07-10T23:09:19Z</time>
      </trkpt>
      <trkpt lat="46.05349" lon="5.71376">
        <ele>1178.4</ele>
        <time>2019-07-10T23:09:19Z</time>
      </trkpt>
      <trkpt lat="46.05337" lon="5.71359">
        <ele>1177.1</ele>
        <time>2019-07-10T23:09:19Z</time>
      </trkpt>
      <trkpt lat="46.05328" lon="5.71358">
        <ele>1176.5</ele>
        <time>2019-07-10T23:09:19Z</time>
      </trkpt>
      <trkpt lat="46.05315" lon="5.71353">
        <ele>1175.2</ele>
        <time>2019-07-10T23:09:19Z</time>
      </trkpt>
      <trkpt lat="46.05303" lon="5.71345">
        <ele>1173.9</ele>
        <time>2019-07-10T23:09:19Z</time>
      </trkpt>
      <trkpt lat="46.0528" lon="5.71286">
        <ele>1172.9</ele>
        <time>2019-07-10T23:09:19Z</time>
      </trkpt>
      <trkpt lat="46.05268" lon="5.71267">
        <ele>1173.9</ele>
        <time>2019-07-10T23:09:19Z</time>
      </trkpt>
      <trkpt lat="46.05251" lon="5.71246">
        <ele>1175.1</ele>
        <time>2019-07-10T23:09:19Z</time>
      </trkpt>
      <trkpt lat="46.05251" lon="5.71196">
        <ele>1175.1</ele>
        <time>2019-07-10T23:09:19Z</time>
      </trkpt>
      <trkpt lat="46.05236" lon="5.71171">
        <ele>1173.8</ele>
        <time>2019-07-10T23:09:19Z</time>
      </trkpt>
      <trkpt lat="46.05233" lon="5.71149">
        <ele>1171.9</ele>
        <time>2019-07-10T23:09:19Z</time>
      </trkpt>
      <trkpt lat="46.0519" lon="5.71019">
        <ele>1162.9</ele>
        <time>2019-07-10T23:09:19Z</time>
      </trkpt>
      <trkpt lat="46.05172" lon="5.70971">
        <ele>1159.7</ele>
        <time>2019-07-10T23:09:19Z</time>
      </trkpt>
      <trkpt lat="46.05152" lon="5.70946">
        <ele>1157</ele>
        <time>2019-07-10T23:09:19Z</time>
      </trkpt>
      <trkpt lat="46.05109" lon="5.70917">
        <ele>1152.6</ele>
        <time>2019-07-10T23:09:19Z</time>
      </trkpt>
      <trkpt lat="46.04999" lon="5.70857">
        <ele>1139.8</ele>
        <time>2019-07-10T23:09:19Z</time>
      </trkpt>
      <trkpt lat="46.04972" lon="5.70844">
        <ele>1138</ele>
        <time>2019-07-10T23:09:19Z</time>
      </trkpt>
      <trkpt lat="46.04949" lon="5.70828">
        <ele>1136.3</ele>
        <time>2019-07-10T23:09:19Z</time>
      </trkpt>
      <trkpt lat="46.04931" lon="5.70827">
        <ele>1134.3</ele>
        <time>2019-07-10T23:09:19Z</time>
      </trkpt>
      <trkpt lat="46.04914" lon="5.70834">
        <ele>1131.8</ele>
        <time>2019-07-10T23:09:19Z</time>
      </trkpt>
      <trkpt lat="46.049" lon="5.70839">
        <ele>1130.8</ele>
        <time>2019-07-10T23:09:19Z</time>
      </trkpt>
      <trkpt lat="46.04879" lon="5.70839">
        <ele>1129.1</ele>
        <time>2019-07-10T23:09:19Z</time>
      </trkpt>
      <trkpt lat="46.04861" lon="5.70836">
        <ele>1127.2</ele>
        <time>2019-07-10T23:09:19Z</time>
      </trkpt>
      <trkpt lat="46.0485" lon="5.70829">
        <ele>1126.6</ele>
        <time>2019-07-10T23:09:19Z</time>
      </trkpt>
      <trkpt lat="46.04838" lon="5.70812">
        <ele>1124.5</ele>
        <time>2019-07-10T23:09:19Z</time>
      </trkpt>
      <trkpt lat="46.04819" lon="5.7078">
        <ele>1121.5</ele>
        <time>2019-07-10T23:09:19Z</time>
      </trkpt>
      <trkpt lat="46.0481" lon="5.70776">
        <ele>1119.8</ele>
        <time>2019-07-10T23:09:19Z</time>
      </trkpt>
      <trkpt lat="46.04791" lon="5.70776">
        <ele>1115.9</ele>
        <time>2019-07-10T23:09:19Z</time>
      </trkpt>
      <trkpt lat="46.04777" lon="5.70771">
        <ele>1113</ele>
        <time>2019-07-10T23:09:19Z</time>
      </trkpt>
      <trkpt lat="46.04753" lon="5.70744">
        <ele>1109.2</ele>
        <time>2019-07-10T23:09:19Z</time>
      </trkpt>
      <trkpt lat="46.04738" lon="5.7072">
        <ele>1107.1</ele>
        <time>2019-07-10T23:09:19Z</time>
      </trkpt>
      <trkpt lat="46.04728" lon="5.70701">
        <ele>1104.8</ele>
        <time>2019-07-10T23:09:19Z</time>
      </trkpt>
      <trkpt lat="46.04719" lon="5.70663">
        <ele>1104.5</ele>
        <time>2019-07-10T23:09:19Z</time>
      </trkpt>
      <trkpt lat="46.04701" lon="5.70638">
        <ele>1100.7</ele>
        <time>2019-07-10T23:09:19Z</time>
      </trkpt>
      <trkpt lat="46.04654" lon="5.706">
        <ele>1093.6</ele>
        <time>2019-07-10T23:09:19Z</time>
      </trkpt>
      <trkpt lat="46.04621" lon="5.70572">
        <ele>1088.9</ele>
        <time>2019-07-10T23:09:19Z</time>
      </trkpt>
      <trkpt lat="46.04605" lon="5.70567">
        <ele>1086.8</ele>
        <time>2019-07-10T23:09:19Z</time>
      </trkpt>
      <trkpt lat="46.04574" lon="5.70563">
        <ele>1084.2</ele>
        <time>2019-07-10T23:09:19Z</time>
      </trkpt>
      <trkpt lat="46.04561" lon="5.70559">
        <ele>1084.2</ele>
        <time>2019-07-10T23:09:19Z</time>
      </trkpt>
      <trkpt lat="46.04553" lon="5.70546">
        <ele>1083.4</ele>
        <time>2019-07-10T23:09:19Z</time>
      </trkpt>
      <trkpt lat="46.0451" lon="5.705">
        <ele>1078.6</ele>
        <time>2019-07-10T23:09:19Z</time>
      </trkpt>
      <trkpt lat="46.04485" lon="5.70489">
        <ele>1075.8</ele>
        <time>2019-07-10T23:09:19Z</time>
      </trkpt>
      <trkpt lat="46.04475" lon="5.70476">
        <ele>1073.5</ele>
        <time>2019-07-10T23:09:19Z</time>
      </trkpt>
      <trkpt lat="46.0447" lon="5.70461">
        <ele>1072</ele>
        <time>2019-07-10T23:09:19Z</time>
      </trkpt>
      <trkpt lat="46.04463" lon="5.70451">
        <ele>1070.5</ele>
        <time>2019-07-10T23:09:19Z</time>
      </trkpt>
      <trkpt lat="46.04454" lon="5.70442">
        <ele>1068.7</ele>
        <time>2019-07-10T23:09:19Z</time>
      </trkpt>
      <trkpt lat="46.04441" lon="5.70441">
        <ele>1067</ele>
        <time>2019-07-10T23:09:19Z</time>
      </trkpt>
      <trkpt lat="46.04423" lon="5.70446">
        <ele>1064.2</ele>
        <time>2019-07-10T23:09:19Z</time>
      </trkpt>
      <trkpt lat="46.04369" lon="5.70464">
        <ele>1058.5</ele>
        <time>2019-07-10T23:09:19Z</time>
      </trkpt>
      <trkpt lat="46.04355" lon="5.7047">
        <ele>1057</ele>
        <time>2019-07-10T23:09:19Z</time>
      </trkpt>
      <trkpt lat="46.04345" lon="5.70478">
        <ele>1056.2</ele>
        <time>2019-07-10T23:09:19Z</time>
      </trkpt>
      <trkpt lat="46.04336" lon="5.7048">
        <ele>1055</ele>
        <time>2019-07-10T23:09:19Z</time>
      </trkpt>
      <trkpt lat="46.04298" lon="5.70474">
        <ele>1050.5</ele>
        <time>2019-07-10T23:09:19Z</time>
      </trkpt>
      <trkpt lat="46.04284" lon="5.70467">
        <ele>1049.1</ele>
        <time>2019-07-10T23:09:19Z</time>
      </trkpt>
      <trkpt lat="46.04279" lon="5.70457">
        <ele>1048</ele>
        <time>2019-07-10T23:09:19Z</time>
      </trkpt>
      <trkpt lat="46.0427" lon="5.70421">
        <ele>1045.9</ele>
        <time>2019-07-10T23:09:19Z</time>
      </trkpt>
      <trkpt lat="46.04247" lon="5.70381">
        <ele>1042.6</ele>
        <time>2019-07-10T23:09:19Z</time>
      </trkpt>
      <trkpt lat="46.04242" lon="5.70365">
        <ele>1041.9</ele>
        <time>2019-07-10T23:09:19Z</time>
      </trkpt>
      <trkpt lat="46.04242" lon="5.70365">
        <ele>1041.9</ele>
        <time>2019-07-10T23:09:19Z</time>
      </trkpt>
      <trkpt lat="46.0423" lon="5.70324">
        <ele>1041</ele>
        <time>2019-07-10T23:09:19Z</time>
      </trkpt>
      <trkpt lat="46.04214" lon="5.70288">
        <ele>1040.4</ele>
        <time>2019-07-10T23:09:19Z</time>
      </trkpt>
      <trkpt lat="46.04187" lon="5.70305">
        <ele>1040.7</ele>
        <time>2019-07-10T23:09:19Z</time>
      </trkpt>
      <trkpt lat="46.04134" lon="5.70355">
        <ele>1039.4</ele>
        <time>2019-07-10T23:09:19Z</time>
      </trkpt>
      <trkpt lat="46.04111" lon="5.70377">
        <ele>1039.6</ele>
        <time>2019-07-10T23:09:19Z</time>
      </trkpt>
      <trkpt lat="46.04097" lon="5.70377">
        <ele>1039.1</ele>
        <time>2019-07-10T23:09:19Z</time>
      </trkpt>
      <trkpt lat="46.04082" lon="5.70371">
        <ele>1038.4</ele>
        <time>2019-07-10T23:09:19Z</time>
      </trkpt>
      <trkpt lat="46.04071" lon="5.70359">
        <ele>1038</ele>
        <time>2019-07-10T23:09:19Z</time>
      </trkpt>
      <trkpt lat="46.04041" lon="5.70342">
        <ele>1037.7</ele>
        <time>2019-07-10T23:09:19Z</time>
      </trkpt>
      <trkpt lat="46.04022" lon="5.70336">
        <ele>1038</ele>
        <time>2019-07-10T23:09:19Z</time>
      </trkpt>
      <trkpt lat="46.04008" lon="5.70338">
        <ele>1038.1</ele>
        <time>2019-07-10T23:09:19Z</time>
      </trkpt>
      <trkpt lat="46.03965" lon="5.70339">
        <ele>1038.5</ele>
        <time>2019-07-10T23:09:19Z</time>
      </trkpt>
      <trkpt lat="46.03959" lon="5.70323">
        <ele>1038.1</ele>
        <time>2019-07-10T23:09:19Z</time>
      </trkpt>
      <trkpt lat="46.03942" lon="5.7032">
        <ele>1038.7</ele>
        <time>2019-07-10T23:09:19Z</time>
      </trkpt>
      <trkpt lat="46.03921" lon="5.70311">
        <ele>1039.4</ele>
        <time>2019-07-10T23:09:19Z</time>
      </trkpt>
      <trkpt lat="46.03901" lon="5.70307">
        <ele>1039.7</ele>
        <time>2019-07-10T23:09:19Z</time>
      </trkpt>
      <trkpt lat="46.03817" lon="5.70299">
        <ele>1041.7</ele>
        <time>2019-07-10T23:09:19Z</time>
      </trkpt>
      <trkpt lat="46.03798" lon="5.70305">
        <ele>1041.7</ele>
        <time>2019-07-10T23:09:19Z</time>
      </trkpt>
      <trkpt lat="46.03782" lon="5.70315">
        <ele>1041.1</ele>
        <time>2019-07-10T23:09:19Z</time>
      </trkpt>
      <trkpt lat="46.03763" lon="5.70329">
        <ele>1041.4</ele>
        <time>2019-07-10T23:09:19Z</time>
      </trkpt>
      <trkpt lat="46.03741" lon="5.70352">
        <ele>1043.5</ele>
        <time>2019-07-10T23:09:19Z</time>
      </trkpt>
      <trkpt lat="46.03731" lon="5.70366">
        <ele>1045.2</ele>
        <time>2019-07-10T23:09:19Z</time>
      </trkpt>
      <trkpt lat="46.0371" lon="5.70397">
        <ele>1047</ele>
        <time>2019-07-10T23:09:19Z</time>
      </trkpt>
      <trkpt lat="46.03702" lon="5.70404">
        <ele>1046.4</ele>
        <time>2019-07-10T23:09:19Z</time>
      </trkpt>
      <trkpt lat="46.03693" lon="5.70409">
        <ele>1045.9</ele>
        <time>2019-07-10T23:09:19Z</time>
      </trkpt>
      <trkpt lat="46.03687" lon="5.70409">
        <ele>1046.8</ele>
        <time>2019-07-10T23:09:19Z</time>
      </trkpt>
      <trkpt lat="46.03679" lon="5.70403">
        <ele>1047.7</ele>
        <time>2019-07-10T23:09:19Z</time>
      </trkpt>
      <trkpt lat="46.03675" lon="5.70389">
        <ele>1047.8</ele>
        <time>2019-07-10T23:09:19Z</time>
      </trkpt>
      <trkpt lat="46.03662" lon="5.70359">
        <ele>1050.1</ele>
        <time>2019-07-10T23:09:19Z</time>
      </trkpt>
      <trkpt lat="46.03649" lon="5.7034">
        <ele>1052.6</ele>
        <time>2019-07-10T23:09:19Z</time>
      </trkpt>
      <trkpt lat="46.03635" lon="5.70326">
        <ele>1054.1</ele>
        <time>2019-07-10T23:09:19Z</time>
      </trkpt>
      <trkpt lat="46.03617" lon="5.70317">
        <ele>1056.3</ele>
        <time>2019-07-10T23:09:19Z</time>
      </trkpt>
      <trkpt lat="46.03599" lon="5.70315">
        <ele>1057.9</ele>
        <time>2019-07-10T23:09:19Z</time>
      </trkpt>
      <trkpt lat="46.03586" lon="5.70321">
        <ele>1059.5</ele>
        <time>2019-07-10T23:09:19Z</time>
      </trkpt>
      <trkpt lat="46.03576" lon="5.70331">
        <ele>1060.7</ele>
        <time>2019-07-10T23:09:19Z</time>
      </trkpt>
      <trkpt lat="46.03562" lon="5.70354">
        <ele>1061.9</ele>
        <time>2019-07-10T23:09:19Z</time>
      </trkpt>
      <trkpt lat="46.03542" lon="5.70406">
        <ele>1063.7</ele>
        <time>2019-07-10T23:09:19Z</time>
      </trkpt>
      <trkpt lat="46.03533" lon="5.70411">
        <ele>1064.9</ele>
        <time>2019-07-10T23:09:19Z</time>
      </trkpt>
      <trkpt lat="46.0351" lon="5.70416">
        <ele>1065.9</ele>
        <time>2019-07-10T23:09:19Z</time>
      </trkpt>
      <trkpt lat="46.03506" lon="5.7042">
        <ele>1066.3</ele>
        <time>2019-07-10T23:09:19Z</time>
      </trkpt>
      <trkpt lat="46.03502" lon="5.70427">
        <ele>1067.1</ele>
        <time>2019-07-10T23:09:19Z</time>
      </trkpt>
      <trkpt lat="46.03499" lon="5.7044">
        <ele>1068.5</ele>
        <time>2019-07-10T23:09:19Z</time>
      </trkpt>
      <trkpt lat="46.03494" lon="5.70446">
        <ele>1069.2</ele>
        <time>2019-07-10T23:09:19Z</time>
      </trkpt>
      <trkpt lat="46.03488" lon="5.70449">
        <ele>1069.4</ele>
        <time>2019-07-10T23:09:19Z</time>
      </trkpt>
      <trkpt lat="46.03483" lon="5.70448">
        <ele>1069.3</ele>
        <time>2019-07-10T23:09:19Z</time>
      </trkpt>
      <trkpt lat="46.03461" lon="5.70437">
        <ele>1070.1</ele>
        <time>2019-07-10T23:09:19Z</time>
      </trkpt>
      <trkpt lat="46.03452" lon="5.70437">
        <ele>1071.4</ele>
        <time>2019-07-10T23:09:19Z</time>
      </trkpt>
      <trkpt lat="46.03443" lon="5.7044">
        <ele>1072.8</ele>
        <time>2019-07-10T23:09:19Z</time>
      </trkpt>
      <trkpt lat="46.03422" lon="5.70456">
        <ele>1075.4</ele>
        <time>2019-07-10T23:09:19Z</time>
      </trkpt>
      <trkpt lat="46.0341" lon="5.70456">
        <ele>1076.8</ele>
        <time>2019-07-10T23:09:19Z</time>
      </trkpt>
      <trkpt lat="46.03392" lon="5.70451">
        <ele>1079</ele>
        <time>2019-07-10T23:09:19Z</time>
      </trkpt>
      <trkpt lat="46.03385" lon="5.70454">
        <ele>1079.4</ele>
        <time>2019-07-10T23:09:19Z</time>
      </trkpt>
      <trkpt lat="46.0337" lon="5.7048">
        <ele>1081.1</ele>
        <time>2019-07-10T23:09:19Z</time>
      </trkpt>
      <trkpt lat="46.03364" lon="5.7048">
        <ele>1080.9</ele>
        <time>2019-07-10T23:09:19Z</time>
      </trkpt>
      <trkpt lat="46.0333" lon="5.7045">
        <ele>1083.5</ele>
        <time>2019-07-10T23:09:19Z</time>
      </trkpt>
      <trkpt lat="46.0332" lon="5.7043">
        <ele>1084.8</ele>
        <time>2019-07-10T23:09:19Z</time>
      </trkpt>
      <trkpt lat="46.03314" lon="5.70428">
        <ele>1086.2</ele>
        <time>2019-07-10T23:09:19Z</time>
      </trkpt>
      <trkpt lat="46.03314" lon="5.70428">
        <ele>1086.2</ele>
        <time>2019-07-10T23:09:19Z</time>
      </trkpt>
      <trkpt lat="46.03314" lon="5.70428">
        <ele>1086.2</ele>
        <time>2019-07-10T23:09:19Z</time>
      </trkpt>
      <trkpt lat="46.03314" lon="5.70428">
        <ele>1086.2</ele>
        <time>2019-07-10T23:09:19Z</time>
      </trkpt>
      <trkpt lat="46.0332" lon="5.7043">
        <ele>1084.8</ele>
        <time>2019-07-10T23:09:19Z</time>
      </trkpt>
      <trkpt lat="46.03313" lon="5.7042">
        <ele>1085.7</ele>
        <time>2019-07-10T23:09:19Z</time>
      </trkpt>
      <trkpt lat="46.03279" lon="5.70394">
        <ele>1087.3</ele>
        <time>2019-07-10T23:09:19Z</time>
      </trkpt>
      <trkpt lat="46.03274" lon="5.70393">
        <ele>1087.7</ele>
        <time>2019-07-10T23:09:19Z</time>
      </trkpt>
      <trkpt lat="46.03266" lon="5.70387">
        <ele>1087.6</ele>
        <time>2019-07-10T23:09:19Z</time>
      </trkpt>
      <trkpt lat="46.0326" lon="5.70375">
        <ele>1086.9</ele>
        <time>2019-07-10T23:09:19Z</time>
      </trkpt>
      <trkpt lat="46.03252" lon="5.70369">
        <ele>1087.3</ele>
        <time>2019-07-10T23:09:19Z</time>
      </trkpt>
      <trkpt lat="46.0324" lon="5.70369">
        <ele>1088.2</ele>
        <time>2019-07-10T23:09:19Z</time>
      </trkpt>
      <trkpt lat="46.0323" lon="5.70363">
        <ele>1088.5</ele>
        <time>2019-07-10T23:09:19Z</time>
      </trkpt>
      <trkpt lat="46.03217" lon="5.70346">
        <ele>1088.9</ele>
        <time>2019-07-10T23:09:19Z</time>
      </trkpt>
      <trkpt lat="46.03193" lon="5.70323">
        <ele>1088.6</ele>
        <time>2019-07-10T23:09:19Z</time>
      </trkpt>
      <trkpt lat="46.03183" lon="5.70307">
        <ele>1088</ele>
        <time>2019-07-10T23:09:19Z</time>
      </trkpt>
      <trkpt lat="46.03147" lon="5.70234">
        <ele>1089.7</ele>
        <time>2019-07-10T23:09:19Z</time>
      </trkpt>
      <trkpt lat="46.03134" lon="5.70223">
        <ele>1090.2</ele>
        <time>2019-07-10T23:09:19Z</time>
      </trkpt>
      <trkpt lat="46.03122" lon="5.70207">
        <ele>1091</ele>
        <time>2019-07-10T23:09:19Z</time>
      </trkpt>
      <trkpt lat="46.03106" lon="5.70192">
        <ele>1091.2</ele>
        <time>2019-07-10T23:09:19Z</time>
      </trkpt>
      <trkpt lat="46.03094" lon="5.70177">
        <ele>1091.6</ele>
        <time>2019-07-10T23:09:19Z</time>
      </trkpt>
      <trkpt lat="46.03055" lon="5.70097">
        <ele>1096.1</ele>
        <time>2019-07-10T23:09:19Z</time>
      </trkpt>
      <trkpt lat="46.03038" lon="5.70056">
        <ele>1099.9</ele>
        <time>2019-07-10T23:09:19Z</time>
      </trkpt>
      <trkpt lat="46.03022" lon="5.70023">
        <ele>1100.7</ele>
        <time>2019-07-10T23:09:19Z</time>
      </trkpt>
      <trkpt lat="46.03008" lon="5.69997">
        <ele>1101.7</ele>
        <time>2019-07-10T23:09:19Z</time>
      </trkpt>
      <trkpt lat="46.02981" lon="5.69969">
        <ele>1102.4</ele>
        <time>2019-07-10T23:09:19Z</time>
      </trkpt>
      <trkpt lat="46.02958" lon="5.69937">
        <ele>1103.4</ele>
        <time>2019-07-10T23:09:19Z</time>
      </trkpt>
      <trkpt lat="46.02945" lon="5.69923">
        <ele>1104</ele>
        <time>2019-07-10T23:09:19Z</time>
      </trkpt>
      <trkpt lat="46.02936" lon="5.69902">
        <ele>1105.5</ele>
        <time>2019-07-10T23:09:19Z</time>
      </trkpt>
      <trkpt lat="46.02921" lon="5.69891">
        <ele>1106</ele>
        <time>2019-07-10T23:09:19Z</time>
      </trkpt>
      <trkpt lat="46.02908" lon="5.69875">
        <ele>1107.1</ele>
        <time>2019-07-10T23:09:19Z</time>
      </trkpt>
      <trkpt lat="46.02879" lon="5.69848">
        <ele>1109.1</ele>
        <time>2019-07-10T23:09:19Z</time>
      </trkpt>
      <trkpt lat="46.02843" lon="5.69776">
        <ele>1109.6</ele>
        <time>2019-07-10T23:09:19Z</time>
      </trkpt>
      <trkpt lat="46.02823" lon="5.69728">
        <ele>1110.5</ele>
        <time>2019-07-10T23:09:19Z</time>
      </trkpt>
      <trkpt lat="46.02801" lon="5.697">
        <ele>1110.8</ele>
        <time>2019-07-10T23:09:19Z</time>
      </trkpt>
      <trkpt lat="46.0279" lon="5.69679">
        <ele>1111.2</ele>
        <time>2019-07-10T23:09:19Z</time>
      </trkpt>
      <trkpt lat="46.0277" lon="5.69656">
        <ele>1110.1</ele>
        <time>2019-07-10T23:09:19Z</time>
      </trkpt>
      <trkpt lat="46.02755" lon="5.69644">
        <ele>1109.5</ele>
        <time>2019-07-10T23:09:19Z</time>
      </trkpt>
      <trkpt lat="46.02713" lon="5.69634">
        <ele>1110</ele>
        <time>2019-07-10T23:09:19Z</time>
      </trkpt>
      <trkpt lat="46.02684" lon="5.69618">
        <ele>1111.9</ele>
        <time>2019-07-10T23:09:19Z</time>
      </trkpt>
      <trkpt lat="46.02674" lon="5.69616">
        <ele>1111.9</ele>
        <time>2019-07-10T23:09:19Z</time>
      </trkpt>
      <trkpt lat="46.02651" lon="5.69621">
        <ele>1110.5</ele>
        <time>2019-07-10T23:09:19Z</time>
      </trkpt>
      <trkpt lat="46.02639" lon="5.69625">
        <ele>1109.5</ele>
        <time>2019-07-10T23:09:19Z</time>
      </trkpt>
      <trkpt lat="46.02631" lon="5.69623">
        <ele>1108.1</ele>
        <time>2019-07-10T23:09:19Z</time>
      </trkpt>
      <trkpt lat="46.02623" lon="5.69615">
        <ele>1106.6</ele>
        <time>2019-07-10T23:09:19Z</time>
      </trkpt>
      <trkpt lat="46.02616" lon="5.69604">
        <ele>1105.1</ele>
        <time>2019-07-10T23:09:19Z</time>
      </trkpt>
      <trkpt lat="46.02605" lon="5.69594">
        <ele>1103.1</ele>
        <time>2019-07-10T23:09:19Z</time>
      </trkpt>
      <trkpt lat="46.02597" lon="5.6959">
        <ele>1102</ele>
        <time>2019-07-10T23:09:19Z</time>
      </trkpt>
      <trkpt lat="46.02588" lon="5.69589">
        <ele>1100.7</ele>
        <time>2019-07-10T23:09:19Z</time>
      </trkpt>
      <trkpt lat="46.0255" lon="5.69565">
        <ele>1096.3</ele>
        <time>2019-07-10T23:09:19Z</time>
      </trkpt>
      <trkpt lat="46.02536" lon="5.6956">
        <ele>1094.2</ele>
        <time>2019-07-10T23:09:19Z</time>
      </trkpt>
      <trkpt lat="46.02507" lon="5.69543">
        <ele>1089.4</ele>
        <time>2019-07-10T23:09:19Z</time>
      </trkpt>
      <trkpt lat="46.02498" lon="5.69541">
        <ele>1087.7</ele>
        <time>2019-07-10T23:09:19Z</time>
      </trkpt>
      <trkpt lat="46.02476" lon="5.69529">
        <ele>1084.6</ele>
        <time>2019-07-10T23:09:19Z</time>
      </trkpt>
      <trkpt lat="46.02434" lon="5.69513">
        <ele>1080</ele>
        <time>2019-07-10T23:09:19Z</time>
      </trkpt>
      <trkpt lat="46.02414" lon="5.69501">
        <ele>1077.6</ele>
        <time>2019-07-10T23:09:19Z</time>
      </trkpt>
      <trkpt lat="46.02385" lon="5.69493">
        <ele>1073.5</ele>
        <time>2019-07-10T23:09:19Z</time>
      </trkpt>
      <trkpt lat="46.02363" lon="5.69481">
        <ele>1071.5</ele>
        <time>2019-07-10T23:09:19Z</time>
      </trkpt>
      <trkpt lat="46.02335" lon="5.6947">
        <ele>1069.3</ele>
        <time>2019-07-10T23:09:19Z</time>
      </trkpt>
      <trkpt lat="46.02335" lon="5.6947">
        <ele>1069.3</ele>
        <time>2019-07-10T23:09:19Z</time>
      </trkpt>
      <trkpt lat="46.02334" lon="5.69469">
        <ele>1069.2</ele>
        <time>2019-07-10T23:09:19Z</time>
      </trkpt>
      <trkpt lat="46.02316" lon="5.69467">
        <ele>1067.3</ele>
        <time>2019-07-10T23:09:19Z</time>
      </trkpt>
      <trkpt lat="46.02302" lon="5.6948">
        <ele>1065.7</ele>
        <time>2019-07-10T23:09:19Z</time>
      </trkpt>
      <trkpt lat="46.02288" lon="5.69504">
        <ele>1064.2</ele>
        <time>2019-07-10T23:09:19Z</time>
      </trkpt>
      <trkpt lat="46.02285" lon="5.69532">
        <ele>1064.9</ele>
        <time>2019-07-10T23:09:19Z</time>
      </trkpt>
      <trkpt lat="46.02278" lon="5.69549">
        <ele>1065.8</ele>
        <time>2019-07-10T23:09:19Z</time>
      </trkpt>
      <trkpt lat="46.02266" lon="5.6955">
        <ele>1066.1</ele>
        <time>2019-07-10T23:09:19Z</time>
      </trkpt>
      <trkpt lat="46.02249" lon="5.69545">
        <ele>1066.3</ele>
        <time>2019-07-10T23:09:19Z</time>
      </trkpt>
      <trkpt lat="46.02214" lon="5.69531">
        <ele>1065.9</ele>
        <time>2019-07-10T23:09:19Z</time>
      </trkpt>
      <trkpt lat="46.02195" lon="5.6954">
        <ele>1065.9</ele>
        <time>2019-07-10T23:09:19Z</time>
      </trkpt>
      <trkpt lat="46.02187" lon="5.69536">
        <ele>1065.3</ele>
        <time>2019-07-10T23:09:19Z</time>
      </trkpt>
      <trkpt lat="46.02187" lon="5.69536">
        <ele>1065.3</ele>
        <time>2019-07-10T23:09:19Z</time>
      </trkpt>
      <trkpt lat="46.02186" lon="5.69536">
        <ele>1065.3</ele>
        <time>2019-07-10T23:09:19Z</time>
      </trkpt>
      <trkpt lat="46.02169" lon="5.69517">
        <ele>1063.7</ele>
        <time>2019-07-10T23:09:19Z</time>
      </trkpt>
      <trkpt lat="46.02148" lon="5.69484">
        <ele>1062.2</ele>
        <time>2019-07-10T23:09:19Z</time>
      </trkpt>
      <trkpt lat="46.02128" lon="5.69446">
        <ele>1059.1</ele>
        <time>2019-07-10T23:09:19Z</time>
      </trkpt>
      <trkpt lat="46.02123" lon="5.6942">
        <ele>1058.1</ele>
        <time>2019-07-10T23:09:19Z</time>
      </trkpt>
      <trkpt lat="46.02123" lon="5.69383">
        <ele>1056.8</ele>
        <time>2019-07-10T23:09:19Z</time>
      </trkpt>
      <trkpt lat="46.02107" lon="5.69372">
        <ele>1055.5</ele>
        <time>2019-07-10T23:09:19Z</time>
      </trkpt>
      <trkpt lat="46.02085" lon="5.69371">
        <ele>1053.8</ele>
        <time>2019-07-10T23:09:19Z</time>
      </trkpt>
      <trkpt lat="46.02005" lon="5.6939">
        <ele>1046.6</ele>
        <time>2019-07-10T23:09:19Z</time>
      </trkpt>
      <trkpt lat="46.01981" lon="5.69386">
        <ele>1045.1</ele>
        <time>2019-07-10T23:09:19Z</time>
      </trkpt>
      <trkpt lat="46.0196" lon="5.69373">
        <ele>1043.2</ele>
        <time>2019-07-10T23:09:19Z</time>
      </trkpt>
      <trkpt lat="46.01958" lon="5.69382">
        <ele>1043.9</ele>
        <time>2019-07-10T23:09:19Z</time>
      </trkpt>
      <trkpt lat="46.01958" lon="5.69382">
        <ele>1043.9</ele>
        <time>2019-07-10T23:09:19Z</time>
      </trkpt>
      <trkpt lat="46.0196" lon="5.69373">
        <ele>1043.2</ele>
        <time>2019-07-10T23:09:19Z</time>
      </trkpt>
      <trkpt lat="46.01945" lon="5.69339">
        <ele>1038.6</ele>
        <time>2019-07-10T23:09:19Z</time>
      </trkpt>
      <trkpt lat="46.01943" lon="5.6933">
        <ele>1037.6</ele>
        <time>2019-07-10T23:09:19Z</time>
      </trkpt>
      <trkpt lat="46.01942" lon="5.69303">
        <ele>1035.6</ele>
        <time>2019-07-10T23:09:19Z</time>
      </trkpt>
      <trkpt lat="46.01977" lon="5.69203">
        <ele>1029.1</ele>
        <time>2019-07-10T23:09:19Z</time>
      </trkpt>
      <trkpt lat="46.01974" lon="5.6916">
        <ele>1026.4</ele>
        <time>2019-07-10T23:09:19Z</time>
      </trkpt>
      <trkpt lat="46.01964" lon="5.69138">
        <ele>1023.6</ele>
        <time>2019-07-10T23:09:19Z</time>
      </trkpt>
      <trkpt lat="46.01964" lon="5.69137">
        <ele>1023.5</ele>
        <time>2019-07-10T23:09:19Z</time>
      </trkpt>
      <trkpt lat="46.01964" lon="5.69137">
        <ele>1023.5</ele>
        <time>2019-07-10T23:09:19Z</time>
      </trkpt>
      <trkpt lat="46.01962" lon="5.69133">
        <ele>1023.1</ele>
        <time>2019-07-10T23:09:19Z</time>
      </trkpt>
      <trkpt lat="46.01945" lon="5.69116">
        <ele>1020.6</ele>
        <time>2019-07-10T23:09:19Z</time>
      </trkpt>
      <trkpt lat="46.01923" lon="5.69085">
        <ele>1017.3</ele>
        <time>2019-07-10T23:09:19Z</time>
      </trkpt>
      <trkpt lat="46.01923" lon="5.69048">
        <ele>1015.1</ele>
        <time>2019-07-10T23:09:19Z</time>
      </trkpt>
      <trkpt lat="46.01932" lon="5.68975">
        <ele>1009.8</ele>
        <time>2019-07-10T23:09:19Z</time>
      </trkpt>
      <trkpt lat="46.01946" lon="5.68914">
        <ele>1008.2</ele>
        <time>2019-07-10T23:09:19Z</time>
      </trkpt>
      <trkpt lat="46.01946" lon="5.68901">
        <ele>1008.2</ele>
        <time>2019-07-10T23:09:19Z</time>
      </trkpt>
      <trkpt lat="46.01909" lon="5.68858">
        <ele>1004.6</ele>
        <time>2019-07-10T23:09:19Z</time>
      </trkpt>
      <trkpt lat="46.01912" lon="5.6884">
        <ele>1003.3</ele>
        <time>2019-07-10T23:09:19Z</time>
      </trkpt>
      <trkpt lat="46.01912" lon="5.6884">
        <ele>1003.3</ele>
        <time>2019-07-10T23:09:19Z</time>
      </trkpt>
      <trkpt lat="46.01913" lon="5.68835">
        <ele>1002.9</ele>
        <time>2019-07-10T23:09:19Z</time>
      </trkpt>
      <trkpt lat="46.01938" lon="5.68818">
        <ele>1000.8</ele>
        <time>2019-07-10T23:09:19Z</time>
      </trkpt>
      <trkpt lat="46.01992" lon="5.68769">
        <ele>994.1</ele>
        <time>2019-07-10T23:09:19Z</time>
      </trkpt>
      <trkpt lat="46.0205" lon="5.68727">
        <ele>987.6</ele>
        <time>2019-07-10T23:09:19Z</time>
      </trkpt>
      <trkpt lat="46.02076" lon="5.68707">
        <ele>984.6</ele>
        <time>2019-07-10T23:09:19Z</time>
      </trkpt>
      <trkpt lat="46.02154" lon="5.68714">
        <ele>989.8</ele>
        <time>2019-07-10T23:09:19Z</time>
      </trkpt>
      <trkpt lat="46.02177" lon="5.68702">
        <ele>987.4</ele>
        <time>2019-07-10T23:09:19Z</time>
      </trkpt>
      <trkpt lat="46.02202" lon="5.68693">
        <ele>985</ele>
        <time>2019-07-10T23:09:19Z</time>
      </trkpt>
      <trkpt lat="46.02221" lon="5.68683">
        <ele>983.9</ele>
        <time>2019-07-10T23:09:19Z</time>
      </trkpt>
      <trkpt lat="46.02246" lon="5.68659">
        <ele>981.6</ele>
        <time>2019-07-10T23:09:19Z</time>
      </trkpt>
      <trkpt lat="46.02261" lon="5.68635">
        <ele>979.9</ele>
        <time>2019-07-10T23:09:19Z</time>
      </trkpt>
      <trkpt lat="46.02265" lon="5.68621">
        <ele>979.3</ele>
        <time>2019-07-10T23:09:19Z</time>
      </trkpt>
      <trkpt lat="46.02265" lon="5.68597">
        <ele>976.8</ele>
        <time>2019-07-10T23:09:19Z</time>
      </trkpt>
      <trkpt lat="46.02261" lon="5.68555">
        <ele>970.7</ele>
        <time>2019-07-10T23:09:19Z</time>
      </trkpt>
      <trkpt lat="46.02259" lon="5.6852">
        <ele>967.9</ele>
        <time>2019-07-10T23:09:19Z</time>
      </trkpt>
      <trkpt lat="46.02256" lon="5.68505">
        <ele>966.8</ele>
        <time>2019-07-10T23:09:19Z</time>
      </trkpt>
      <trkpt lat="46.02247" lon="5.68493">
        <ele>965.3</ele>
        <time>2019-07-10T23:09:19Z</time>
      </trkpt>
      <trkpt lat="46.02244" lon="5.68486">
        <ele>964.6</ele>
        <time>2019-07-10T23:09:19Z</time>
      </trkpt>
      <trkpt lat="46.02244" lon="5.68478">
        <ele>964</ele>
        <time>2019-07-10T23:09:19Z</time>
      </trkpt>
      <trkpt lat="46.02247" lon="5.68469">
        <ele>962.9</ele>
        <time>2019-07-10T23:09:19Z</time>
      </trkpt>
      <trkpt lat="46.02266" lon="5.68458">
        <ele>961.4</ele>
        <time>2019-07-10T23:09:19Z</time>
      </trkpt>
      <trkpt lat="46.02324" lon="5.68443">
        <ele>960.5</ele>
        <time>2019-07-10T23:09:19Z</time>
      </trkpt>
      <trkpt lat="46.0233" lon="5.68437">
        <ele>959.8</ele>
        <time>2019-07-10T23:09:19Z</time>
      </trkpt>
      <trkpt lat="46.0233" lon="5.68437">
        <ele>959.8</ele>
        <time>2019-07-10T23:09:19Z</time>
      </trkpt>
      <trkpt lat="46.02333" lon="5.68435">
        <ele>959.6</ele>
        <time>2019-07-10T23:09:19Z</time>
      </trkpt>
      <trkpt lat="46.02334" lon="5.68422">
        <ele>957.8</ele>
        <time>2019-07-10T23:09:19Z</time>
      </trkpt>
      <trkpt lat="46.02321" lon="5.68424">
        <ele>957.6</ele>
        <time>2019-07-10T23:09:19Z</time>
      </trkpt>
      <trkpt lat="46.02247" lon="5.68432">
        <ele>954</ele>
        <time>2019-07-10T23:09:19Z</time>
      </trkpt>
      <trkpt lat="46.02169" lon="5.68434">
        <ele>947.9</ele>
        <time>2019-07-10T23:09:19Z</time>
      </trkpt>
      <trkpt lat="46.02033" lon="5.6843">
        <ele>940.8</ele>
        <time>2019-07-10T23:09:19Z</time>
      </trkpt>
      <trkpt lat="46.01998" lon="5.68438">
        <ele>938.9</ele>
        <time>2019-07-10T23:09:19Z</time>
      </trkpt>
      <trkpt lat="46.01977" lon="5.6845">
        <ele>938.6</ele>
        <time>2019-07-10T23:09:19Z</time>
      </trkpt>
      <trkpt lat="46.01936" lon="5.68491">
        <ele>935.5</ele>
        <time>2019-07-10T23:09:19Z</time>
      </trkpt>
      <trkpt lat="46.01918" lon="5.68504">
        <ele>934.2</ele>
        <time>2019-07-10T23:09:19Z</time>
      </trkpt>
      <trkpt lat="46.01895" lon="5.6851">
        <ele>933.5</ele>
        <time>2019-07-10T23:09:19Z</time>
      </trkpt>
      <trkpt lat="46.0185" lon="5.6851">
        <ele>929.9</ele>
        <time>2019-07-10T23:09:19Z</time>
      </trkpt>
      <trkpt lat="46.01825" lon="5.68515">
        <ele>927.8</ele>
        <time>2019-07-10T23:09:19Z</time>
      </trkpt>
      <trkpt lat="46.0179" lon="5.68525">
        <ele>926</ele>
        <time>2019-07-10T23:09:19Z</time>
      </trkpt>
      <trkpt lat="46.01723" lon="5.68519">
        <ele>920.6</ele>
        <time>2019-07-10T23:09:19Z</time>
      </trkpt>
      <trkpt lat="46.01691" lon="5.68527">
        <ele>918.7</ele>
        <time>2019-07-10T23:09:19Z</time>
      </trkpt>
      <trkpt lat="46.01679" lon="5.68533">
        <ele>916.3</ele>
        <time>2019-07-10T23:09:19Z</time>
      </trkpt>
      <trkpt lat="46.01664" lon="5.68563">
        <ele>916.1</ele>
        <time>2019-07-10T23:09:19Z</time>
      </trkpt>
      <trkpt lat="46.01654" lon="5.68568">
        <ele>916.6</ele>
        <time>2019-07-10T23:09:19Z</time>
      </trkpt>
      <trkpt lat="46.01642" lon="5.68564">
        <ele>914.6</ele>
        <time>2019-07-10T23:09:19Z</time>
      </trkpt>
      <trkpt lat="46.01628" lon="5.6855">
        <ele>912.3</ele>
        <time>2019-07-10T23:09:19Z</time>
      </trkpt>
      <trkpt lat="46.01618" lon="5.68533">
        <ele>909.7</ele>
        <time>2019-07-10T23:09:19Z</time>
      </trkpt>
      <trkpt lat="46.01577" lon="5.6852">
        <ele>905.2</ele>
        <time>2019-07-10T23:09:19Z</time>
      </trkpt>
      <trkpt lat="46.01523" lon="5.68525">
        <ele>902.5</ele>
        <time>2019-07-10T23:09:19Z</time>
      </trkpt>
      <trkpt lat="46.01498" lon="5.68531">
        <ele>902.7</ele>
        <time>2019-07-10T23:09:19Z</time>
      </trkpt>
      <trkpt lat="46.0138" lon="5.68526">
        <ele>891.8</ele>
        <time>2019-07-10T23:09:19Z</time>
      </trkpt>
      <trkpt lat="46.01342" lon="5.6853">
        <ele>888.7</ele>
        <time>2019-07-10T23:09:19Z</time>
      </trkpt>
      <trkpt lat="46.01307" lon="5.68546">
        <ele>885.9</ele>
        <time>2019-07-10T23:09:19Z</time>
      </trkpt>
      <trkpt lat="46.0128" lon="5.68566">
        <ele>883.9</ele>
        <time>2019-07-10T23:09:19Z</time>
      </trkpt>
      <trkpt lat="46.01248" lon="5.68573">
        <ele>879.8</ele>
        <time>2019-07-10T23:09:19Z</time>
      </trkpt>
      <trkpt lat="46.01127" lon="5.68639">
        <ele>868.9</ele>
        <time>2019-07-10T23:09:19Z</time>
      </trkpt>
      <trkpt lat="46.01041" lon="5.68668">
        <ele>857.6</ele>
        <time>2019-07-10T23:09:19Z</time>
      </trkpt>
      <trkpt lat="46.0102" lon="5.68679">
        <ele>855.3</ele>
        <time>2019-07-10T23:09:19Z</time>
      </trkpt>
      <trkpt lat="46.01003" lon="5.68699">
        <ele>854.5</ele>
        <time>2019-07-10T23:09:19Z</time>
      </trkpt>
      <trkpt lat="46.0097" lon="5.6875">
        <ele>857.4</ele>
        <time>2019-07-10T23:09:19Z</time>
      </trkpt>
      <trkpt lat="46.00967" lon="5.6876">
        <ele>858.6</ele>
        <time>2019-07-10T23:09:19Z</time>
      </trkpt>
      <trkpt lat="46.00951" lon="5.6877">
        <ele>856.8</ele>
        <time>2019-07-10T23:09:19Z</time>
      </trkpt>
      <trkpt lat="46.00916" lon="5.6879">
        <ele>853.9</ele>
        <time>2019-07-10T23:09:19Z</time>
      </trkpt>
      <trkpt lat="46.0086" lon="5.68818">
        <ele>848.4</ele>
        <time>2019-07-10T23:09:19Z</time>
      </trkpt>
      <trkpt lat="46.00844" lon="5.6883">
        <ele>846.8</ele>
        <time>2019-07-10T23:09:19Z</time>
      </trkpt>
      <trkpt lat="46.00815" lon="5.68863">
        <ele>845.2</ele>
        <time>2019-07-10T23:09:19Z</time>
      </trkpt>
      <trkpt lat="46.00773" lon="5.689">
        <ele>842.8</ele>
        <time>2019-07-10T23:09:19Z</time>
      </trkpt>
      <trkpt lat="46.00732" lon="5.68929">
        <ele>837.9</ele>
        <time>2019-07-10T23:09:19Z</time>
      </trkpt>
      <trkpt lat="46.00701" lon="5.6896">
        <ele>837</ele>
        <time>2019-07-10T23:09:19Z</time>
      </trkpt>
      <trkpt lat="46.00694" lon="5.68961">
        <ele>835.5</ele>
        <time>2019-07-10T23:09:19Z</time>
      </trkpt>
      <trkpt lat="46.00691" lon="5.68954">
        <ele>833.3</ele>
        <time>2019-07-10T23:09:19Z</time>
      </trkpt>
      <trkpt lat="46.00692" lon="5.68947">
        <ele>832</ele>
        <time>2019-07-10T23:09:19Z</time>
      </trkpt>
      <trkpt lat="46.00751" lon="5.68849">
        <ele>826.5</ele>
        <time>2019-07-10T23:09:19Z</time>
      </trkpt>
      <trkpt lat="46.00766" lon="5.68828">
        <ele>826.9</ele>
        <time>2019-07-10T23:09:19Z</time>
      </trkpt>
      <trkpt lat="46.00771" lon="5.68817">
        <ele>826.5</ele>
        <time>2019-07-10T23:09:19Z</time>
      </trkpt>
      <trkpt lat="46.00772" lon="5.6881">
        <ele>825.7</ele>
        <time>2019-07-10T23:09:19Z</time>
      </trkpt>
      <trkpt lat="46.00769" lon="5.68801">
        <ele>824.1</ele>
        <time>2019-07-10T23:09:19Z</time>
      </trkpt>
      <trkpt lat="46.00761" lon="5.68796">
        <ele>822.2</ele>
        <time>2019-07-10T23:09:19Z</time>
      </trkpt>
      <trkpt lat="46.00754" lon="5.688">
        <ele>821.8</ele>
        <time>2019-07-10T23:09:19Z</time>
      </trkpt>
      <trkpt lat="46.00705" lon="5.68843">
        <ele>816.7</ele>
        <time>2019-07-10T23:09:19Z</time>
      </trkpt>
      <trkpt lat="46.00663" lon="5.68875">
        <ele>812.4</ele>
        <time>2019-07-10T23:09:19Z</time>
      </trkpt>
      <trkpt lat="46.0062" lon="5.68902">
        <ele>808.8</ele>
        <time>2019-07-10T23:09:19Z</time>
      </trkpt>
      <trkpt lat="46.00582" lon="5.68933">
        <ele>805</ele>
        <time>2019-07-10T23:09:19Z</time>
      </trkpt>
      <trkpt lat="46.00569" lon="5.68949">
        <ele>803.7</ele>
        <time>2019-07-10T23:09:19Z</time>
      </trkpt>
      <trkpt lat="46.00543" lon="5.69009">
        <ele>800.8</ele>
        <time>2019-07-10T23:09:19Z</time>
      </trkpt>
      <trkpt lat="46.00531" lon="5.69024">
        <ele>799.4</ele>
        <time>2019-07-10T23:09:19Z</time>
      </trkpt>
      <trkpt lat="46.00513" lon="5.69038">
        <ele>798.5</ele>
        <time>2019-07-10T23:09:19Z</time>
      </trkpt>
      <trkpt lat="46.00426" lon="5.69094">
        <ele>791.7</ele>
        <time>2019-07-10T23:09:19Z</time>
      </trkpt>
      <trkpt lat="46.00381" lon="5.69112">
        <ele>788</ele>
        <time>2019-07-10T23:09:19Z</time>
      </trkpt>
      <trkpt lat="46.00336" lon="5.69151">
        <ele>783.9</ele>
        <time>2019-07-10T23:09:19Z</time>
      </trkpt>
      <trkpt lat="46.00306" lon="5.69172">
        <ele>781</ele>
        <time>2019-07-10T23:09:19Z</time>
      </trkpt>
      <trkpt lat="46.0028" lon="5.69185">
        <ele>779.3</ele>
        <time>2019-07-10T23:09:19Z</time>
      </trkpt>
      <trkpt lat="46.0026" lon="5.69188">
        <ele>776.9</ele>
        <time>2019-07-10T23:09:19Z</time>
      </trkpt>
      <trkpt lat="46.00234" lon="5.6919">
        <ele>774.1</ele>
        <time>2019-07-10T23:09:19Z</time>
      </trkpt>
      <trkpt lat="46.00179" lon="5.6917">
        <ele>769.2</ele>
        <time>2019-07-10T23:09:19Z</time>
      </trkpt>
      <trkpt lat="46.0016" lon="5.69167">
        <ele>767.5</ele>
        <time>2019-07-10T23:09:19Z</time>
      </trkpt>
      <trkpt lat="46.0014" lon="5.69173">
        <ele>765.9</ele>
        <time>2019-07-10T23:09:19Z</time>
      </trkpt>
      <trkpt lat="46.00105" lon="5.69197">
        <ele>761.5</ele>
        <time>2019-07-10T23:09:19Z</time>
      </trkpt>
      <trkpt lat="46.00065" lon="5.69217">
        <ele>757.6</ele>
        <time>2019-07-10T23:09:19Z</time>
      </trkpt>
      <trkpt lat="46.00076" lon="5.69187">
        <ele>758.5</ele>
        <time>2019-07-10T23:09:19Z</time>
      </trkpt>
      <trkpt lat="46.00098" lon="5.69141">
        <ele>759.2</ele>
        <time>2019-07-10T23:09:19Z</time>
      </trkpt>
      <trkpt lat="46.00114" lon="5.69111">
        <ele>759.4</ele>
        <time>2019-07-10T23:09:19Z</time>
      </trkpt>
      <trkpt lat="46.00124" lon="5.69087">
        <ele>759.5</ele>
        <time>2019-07-10T23:09:19Z</time>
      </trkpt>
      <trkpt lat="46.00133" lon="5.69049">
        <ele>758.2</ele>
        <time>2019-07-10T23:09:19Z</time>
      </trkpt>
      <trkpt lat="46.0014" lon="5.69027">
        <ele>758.1</ele>
        <time>2019-07-10T23:09:19Z</time>
      </trkpt>
      <trkpt lat="46.0016" lon="5.68994">
        <ele>757.3</ele>
        <time>2019-07-10T23:09:19Z</time>
      </trkpt>
      <trkpt lat="46.00227" lon="5.68908">
        <ele>755.4</ele>
        <time>2019-07-10T23:09:19Z</time>
      </trkpt>
      <trkpt lat="46.00281" lon="5.68861">
        <ele>753.3</ele>
        <time>2019-07-10T23:09:19Z</time>
      </trkpt>
      <trkpt lat="46.00288" lon="5.68847">
        <ele>752.8</ele>
        <time>2019-07-10T23:09:19Z</time>
      </trkpt>
      <trkpt lat="46.00291" lon="5.68841">
        <ele>752.6</ele>
        <time>2019-07-10T23:09:19Z</time>
      </trkpt>
      <trkpt lat="46.00295" lon="5.68832">
        <ele>752.4</ele>
        <time>2019-07-10T23:09:19Z</time>
      </trkpt>
      <trkpt lat="46.00327" lon="5.68729">
        <ele>748.7</ele>
        <time>2019-07-10T23:09:19Z</time>
      </trkpt>
      <trkpt lat="46.0033" lon="5.68713">
        <ele>748</ele>
        <time>2019-07-10T23:09:19Z</time>
      </trkpt>
      <trkpt lat="46.00338" lon="5.68703">
        <ele>748.1</ele>
        <time>2019-07-10T23:09:19Z</time>
      </trkpt>
      <trkpt lat="46.00429" lon="5.68594">
        <ele>751.9</ele>
        <time>2019-07-10T23:09:19Z</time>
      </trkpt>
      <trkpt lat="46.0048" lon="5.68545">
        <ele>752.5</ele>
        <time>2019-07-10T23:09:19Z</time>
      </trkpt>
      <trkpt lat="46.00539" lon="5.685">
        <ele>754.4</ele>
        <time>2019-07-10T23:09:19Z</time>
      </trkpt>
      <trkpt lat="46.00602" lon="5.6847">
        <ele>756.1</ele>
        <time>2019-07-10T23:09:19Z</time>
      </trkpt>
      <trkpt lat="46.00636" lon="5.68447">
        <ele>756.8</ele>
        <time>2019-07-10T23:09:19Z</time>
      </trkpt>
      <trkpt lat="46.00647" lon="5.68424">
        <ele>757.1</ele>
        <time>2019-07-10T23:09:19Z</time>
      </trkpt>
      <trkpt lat="46.00653" lon="5.68403">
        <ele>758</ele>
        <time>2019-07-10T23:09:19Z</time>
      </trkpt>
      <trkpt lat="46.00662" lon="5.68377">
        <ele>759.2</ele>
        <time>2019-07-10T23:09:19Z</time>
      </trkpt>
    </trkseg>
  </trk>
</gpx>